AMX233 SAWH-MMMY

Flight info

Callsign AMX233
Flight time N/A
Altitude 34000
Route USU2A ROMIV UL670 NAS UQ802 ESGOR UQ809 NEKOR GERKI ESDIN UL401 POGAM XOSLO PAZ RETOS RETO1A
Aircraft B788/H-V/N

Departure

Time N/A
Airport Ushuaia - Malvinas Argentinas International Airport (SAWH)

Arrival

Time 2026-04-14 12:12
Airport Monterrey International Airport (MMMY)
Time Latitude Longitude Altitude Speed Heading
2026-04-14 02:11 -45.79573 -73.63617 33996 ft 486 kts 356°
2026-04-14 02:11 -45.79060 -73.63629 33996 ft 486 kts 356°
2026-04-14 02:12 -45.78510 -73.63642 33996 ft 486 kts 356°
2026-04-14 02:12 -45.71757 -73.63803 33996 ft 486 kts 356°
2026-04-14 02:13 -45.65009 -73.63963 33996 ft 486 kts 356°
2026-04-14 02:13 -45.58248 -73.64122 33996 ft 486 kts 356°
2026-04-14 02:14 -45.51488 -73.64282 33996 ft 486 kts 356°
2026-04-14 02:14 -45.44692 -73.64441 33996 ft 486 kts 356°
2026-04-14 02:15 -45.37922 -73.64600 33996 ft 486 kts 356°
2026-04-14 02:15 -45.31188 -73.64757 33996 ft 486 kts 356°
2026-04-14 02:16 -45.24428 -73.64915 33996 ft 486 kts 356°
2026-04-14 02:16 -45.17654 -73.65072 33996 ft 486 kts 356°
2026-04-14 02:17 -45.10867 -73.65230 33996 ft 486 kts 356°
2026-04-14 02:17 -45.04130 -73.65386 33996 ft 486 kts 356°
2026-04-14 02:18 -44.97361 -73.65542 33996 ft 486 kts 356°
2026-04-14 02:18 -44.90589 -73.65698 33996 ft 486 kts 356°
2026-04-14 02:19 -44.83841 -73.65853 33996 ft 486 kts 356°
2026-04-14 02:19 -44.77096 -73.66008 33996 ft 486 kts 356°
2026-04-14 02:20 -44.70313 -73.66163 33996 ft 486 kts 356°
2026-04-14 02:20 -44.63525 -73.66318 33996 ft 486 kts 356°
2026-04-14 02:21 -44.56781 -73.66472 33996 ft 486 kts 356°
2026-04-14 02:21 -44.50000 -73.66626 33996 ft 486 kts 356°
2026-04-14 02:22 -44.43243 -73.66779 33996 ft 486 kts 356°
2026-04-14 02:22 -44.36457 -73.66932 33996 ft 486 kts 356°
2026-04-14 02:23 -44.29726 -73.67084 33996 ft 486 kts 356°
2026-04-14 02:23 -44.22970 -73.67236 33996 ft 486 kts 356°
2026-04-14 02:24 -44.16210 -73.67388 33996 ft 486 kts 356°
2026-04-14 02:24 -44.09422 -73.67540 33996 ft 486 kts 356°
2026-04-14 02:25 -44.02656 -73.67692 33996 ft 486 kts 356°
2026-04-14 02:25 -43.95905 -73.67842 33996 ft 486 kts 356°
2026-04-14 02:26 -43.89168 -73.67992 33996 ft 486 kts 356°
2026-04-14 02:26 -43.82384 -73.68143 33996 ft 486 kts 356°
2026-04-14 02:27 -43.75634 -73.68292 33996 ft 486 kts 356°
2026-04-14 02:27 -43.68863 -73.68442 33996 ft 486 kts 356°
2026-04-14 02:28 -43.62068 -73.68592 33996 ft 486 kts 356°
2026-04-14 02:28 -43.55323 -73.68740 33996 ft 486 kts 356°
2026-04-14 02:29 -43.48556 -73.68889 33996 ft 486 kts 356°
2026-04-14 02:29 -43.41806 -73.69037 33996 ft 486 kts 356°
2026-04-14 02:30 -43.35041 -73.69185 33996 ft 486 kts 356°
2026-04-14 02:30 -43.28269 -73.69332 33996 ft 486 kts 356°
2026-04-14 02:31 -43.21535 -73.69479 33996 ft 486 kts 356°
2026-04-14 02:31 -43.14740 -73.69626 33996 ft 486 kts 356°
2026-04-14 02:32 -43.07981 -73.69773 33996 ft 486 kts 356°
2026-04-14 02:32 -43.01240 -73.69918 33996 ft 486 kts 356°
2026-04-14 02:33 -42.94458 -73.70065 33996 ft 486 kts 356°
2026-04-14 02:34 -42.84320 -73.70283 33996 ft 486 kts 356°
2026-04-14 02:34 -42.77584 -73.70427 33996 ft 486 kts 356°
2026-04-14 02:35 -42.70824 -73.70572 33996 ft 486 kts 356°
2026-04-14 02:35 -42.64036 -73.70717 33996 ft 486 kts 356°
2026-04-14 02:36 -42.62903 -73.70741 33996 ft 486 kts 356°
2026-04-14 02:36 -42.50531 -73.71004 33996 ft 486 kts 356°
2026-04-14 02:37 -42.43758 -73.71148 33996 ft 486 kts 356°
2026-04-14 02:37 -42.38110 -73.71261 33996 ft 486 kts 357°
2026-04-14 02:38 -42.30240 -73.70451 33997 ft 489 kts
2026-04-14 02:38 -42.23503 -73.69052 33996 ft 490 kts
2026-04-14 02:39 -42.17897 -73.67705 33996 ft 491 kts
2026-04-14 02:39 -42.11152 -73.66012 33996 ft 491 kts
2026-04-14 02:40 -42.04463 -73.64319 33996 ft 491 kts
2026-04-14 02:40 -41.97720 -73.62622 33996 ft 491 kts
2026-04-14 02:41 -41.91024 -73.60954 33996 ft 491 kts
2026-04-14 02:41 -41.84303 -73.59296 33996 ft 491 kts
2026-04-14 02:42 -41.77574 -73.57649 33996 ft 491 kts
2026-04-14 02:42 -41.70855 -73.56016 33996 ft 491 kts
2026-04-14 02:43 -41.64126 -73.54390 33996 ft 491 kts
2026-04-14 02:43 -41.57433 -73.52779 33996 ft 491 kts
2026-04-14 02:44 -41.50705 -73.51166 33996 ft 491 kts
2026-04-14 02:44 -41.43948 -73.49552 33996 ft 491 kts
2026-04-14 02:45 -41.37209 -73.47946 33996 ft 491 kts
2026-04-14 02:45 -41.30499 -73.46351 33996 ft 491 kts
2026-04-14 02:46 -41.23761 -73.44754 33996 ft 491 kts
2026-04-14 02:46 -41.17061 -73.43169 33996 ft 491 kts
2026-04-14 02:47 -41.10337 -73.41582 33996 ft 491 kts
2026-04-14 02:47 -41.03619 -73.40000 33996 ft 490 kts
2026-04-14 02:48 -40.96899 -73.38421 33996 ft 490 kts
2026-04-14 02:48 -40.90163 -73.36842 33996 ft 490 kts
2026-04-14 02:49 -40.83440 -73.35269 33996 ft 490 kts
2026-04-14 02:49 -40.76715 -73.33699 33996 ft 490 kts
2026-04-14 02:50 -40.70001 -73.32134 33996 ft 490 kts
2026-04-14 02:50 -40.63272 -73.30569 33996 ft 490 kts
2026-04-14 02:51 -40.56548 -73.29009 33996 ft 490 kts
2026-04-14 02:51 -40.49809 -73.27448 33996 ft 490 kts
2026-04-14 02:52 -40.43062 -73.25889 33996 ft 490 kts
2026-04-14 02:52 -40.36365 -73.24344 33996 ft 490 kts
2026-04-14 02:53 -40.29649 -73.22798 33996 ft 490 kts
2026-04-14 02:53 -40.22918 -73.21252 33996 ft 490 kts
2026-04-14 02:54 -40.16173 -73.19705 33996 ft 490 kts
2026-04-14 02:54 -40.09440 -73.18165 33996 ft 490 kts
2026-04-14 02:55 -40.02742 -73.16635 33996 ft 490 kts
2026-04-14 02:55 -40.01066 -73.16253 33996 ft 490 kts
2026-04-14 02:56 -39.99040 -73.15791 33996 ft 490 kts
2026-04-14 02:56 -39.92315 -73.14260 33996 ft 490 kts
2026-04-14 02:57 -39.86729 -73.12990 33996 ft 490 kts
2026-04-14 02:57 -39.78867 -73.11207 33996 ft 490 kts
2026-04-14 02:58 -39.72141 -73.09684 33996 ft 490 kts
2026-04-14 02:58 -39.65357 -73.08588 33996 ft 488 kts
2026-04-14 02:59 -39.58632 -73.08199 33996 ft 487 kts 358°
2026-04-14 02:59 -39.51858 -73.08116 33996 ft 486 kts 357°
2026-04-14 03:00 -39.45083 -73.08140 33996 ft 486 kts 356°
2026-04-14 03:00 -39.38302 -73.08177 33996 ft 486 kts 357°
2026-04-14 03:01 -39.31517 -73.08187 33996 ft 486 kts 357°
2026-04-14 03:01 -39.24886 -73.09072 33996 ft 478 kts 340°
2026-04-14 03:02 -39.18774 -73.12330 33999 ft 474 kts 330°
2026-04-14 03:02 -39.13029 -73.16460 33997 ft 473 kts 327°
2026-04-14 03:03 -39.07379 -73.20883 33996 ft 473 kts 326°
2026-04-14 03:03 -39.01811 -73.25319 33996 ft 473 kts 326°
2026-04-14 03:04 -38.96210 -73.29757 33996 ft 473 kts 326°
2026-04-14 03:04 -38.90586 -73.34166 33996 ft 473 kts 326°
2026-04-14 03:05 -38.84947 -73.38537 33996 ft 473 kts 326°
2026-04-14 03:05 -38.79260 -73.42905 33996 ft 473 kts 327°
2026-04-14 03:06 -38.73601 -73.47218 33996 ft 474 kts 327°
2026-04-14 03:06 -38.67929 -73.51515 33996 ft 474 kts 327°
2026-04-14 03:07 -38.62240 -73.55804 33996 ft 474 kts 327°
2026-04-14 03:07 -38.56563 -73.60066 33996 ft 474 kts 327°
2026-04-14 03:08 -38.50898 -73.64306 33996 ft 474 kts 327°
2026-04-14 03:08 -38.46122 -73.67871 33996 ft 474 kts 327°
2026-04-14 03:09 -38.40461 -73.72086 33996 ft 474 kts 327°
2026-04-14 03:09 -38.33815 -73.77023 33996 ft 474 kts 327°
2026-04-14 03:10 -38.29052 -73.80552 33996 ft 474 kts 327°
2026-04-14 03:10 -38.23347 -73.84772 33996 ft 474 kts 327°
2026-04-14 03:11 -38.17635 -73.88989 33996 ft 474 kts 327°
2026-04-14 03:11 -38.11937 -73.93187 33996 ft 474 kts 327°
2026-04-14 03:12 -38.06248 -73.97370 33996 ft 474 kts 327°
2026-04-14 03:12 -38.00551 -74.01552 33996 ft 474 kts 327°
2026-04-14 03:13 -37.94804 -74.05762 33996 ft 474 kts 327°
2026-04-14 03:13 -37.89097 -74.09935 33996 ft 474 kts 327°
2026-04-14 03:14 -37.83401 -74.14092 33996 ft 474 kts 327°
2026-04-14 03:14 -37.77678 -74.18263 33996 ft 474 kts 327°
2026-04-14 03:15 -37.71995 -74.22396 33996 ft 474 kts 327°
2026-04-14 03:15 -37.66262 -74.26557 33996 ft 474 kts 327°
2026-04-14 03:16 -37.60534 -74.30708 33996 ft 474 kts 327°
2026-04-14 03:16 -37.54831 -74.34833 33996 ft 474 kts 327°
2026-04-14 03:17 -37.49111 -74.38963 33996 ft 474 kts 327°
2026-04-14 03:17 -37.40484 -74.45179 33996 ft 474 kts 328°
2026-04-14 03:18 -37.34778 -74.49281 33996 ft 474 kts 328°
2026-04-14 03:18 -37.29035 -74.53402 33996 ft 474 kts 328°
2026-04-14 03:19 -37.23331 -74.57488 33996 ft 474 kts 328°
2026-04-14 03:19 -37.17607 -74.61580 33996 ft 474 kts 328°
2026-04-14 03:20 -37.11850 -74.65690 33996 ft 474 kts 328°
2026-04-14 03:20 -37.06138 -74.69759 33996 ft 474 kts 328°
2026-04-14 03:21 -37.00388 -74.73849 33996 ft 474 kts 328°
2026-04-14 03:21 -36.94661 -74.77916 33996 ft 474 kts 328°
2026-04-14 03:22 -36.88939 -74.81971 33996 ft 474 kts 328°
2026-04-14 03:22 -36.83166 -74.86056 33996 ft 474 kts 328°
2026-04-14 03:23 -36.77446 -74.90096 33996 ft 474 kts 328°
2026-04-14 03:23 -36.71690 -74.94155 33996 ft 474 kts 328°
2026-04-14 03:24 -36.65978 -74.98175 33996 ft 474 kts 328°
2026-04-14 03:24 -36.60228 -75.02216 33996 ft 474 kts 328°
2026-04-14 03:25 -36.54469 -75.06255 33996 ft 474 kts 328°
2026-04-14 03:25 -36.48731 -75.10273 33996 ft 474 kts 328°
2026-04-14 03:26 -36.42997 -75.14282 33996 ft 474 kts 328°
2026-04-14 03:26 -36.37240 -75.18299 33996 ft 474 kts 328°
2026-04-14 03:27 -36.31496 -75.22301 33996 ft 474 kts 328°
2026-04-14 03:27 -36.25717 -75.26320 33996 ft 474 kts 328°
2026-04-14 03:28 -36.19963 -75.30315 33996 ft 474 kts 328°
2026-04-14 03:28 -36.14200 -75.34309 33996 ft 474 kts 328°
2026-04-14 03:29 -36.08473 -75.38272 33996 ft 474 kts 328°
2026-04-14 03:29 -36.02708 -75.42254 33996 ft 474 kts 328°
2026-04-14 03:30 -35.96932 -75.46237 33996 ft 474 kts 328°
2026-04-14 03:30 -35.91202 -75.50181 33996 ft 474 kts 328°
2026-04-14 03:31 -35.85430 -75.54149 33996 ft 474 kts 328°
2026-04-14 03:31 -35.79675 -75.58097 33996 ft 474 kts 328°
2026-04-14 03:32 -35.73887 -75.62062 33996 ft 474 kts 328°
2026-04-14 03:32 -35.68120 -75.66005 33996 ft 474 kts 328°
2026-04-14 03:33 -35.62358 -75.69939 33996 ft 474 kts 328°
2026-04-14 03:33 -35.56595 -75.73867 33996 ft 474 kts 328°
2026-04-14 03:34 -35.47942 -75.79752 33996 ft 474 kts 328°
2026-04-14 03:35 -35.42164 -75.83674 33996 ft 474 kts 328°
2026-04-14 03:35 -35.36397 -75.87581 33996 ft 474 kts 328°
2026-04-14 03:36 -35.30631 -75.91482 33996 ft 474 kts 328°
2026-04-14 03:36 -35.24838 -75.95395 33996 ft 474 kts 328°
2026-04-14 03:37 -35.20595 -75.98256 33996 ft 474 kts 328°
2026-04-14 03:37 -35.14801 -76.02159 33996 ft 474 kts 328°
2026-04-14 03:38 -35.09037 -76.06034 33996 ft 474 kts 328°
2026-04-14 03:38 -35.03227 -76.09934 33996 ft 474 kts 328°
2026-04-14 03:39 -34.97473 -76.13790 33996 ft 474 kts 328°
2026-04-14 03:39 -34.91685 -76.17663 33996 ft 474 kts 328°
2026-04-14 03:40 -34.86870 -76.20880 33996 ft 474 kts 328°
2026-04-14 03:40 -34.80122 -76.25381 33996 ft 474 kts 328°
2026-04-14 03:41 -34.75290 -76.28599 33996 ft 474 kts 329°
2026-04-14 03:41 -34.69519 -76.32436 33996 ft 474 kts 329°
2026-04-14 03:42 -34.63734 -76.36277 33996 ft 474 kts 329°
2026-04-14 03:42 -34.57912 -76.40136 33996 ft 474 kts 329°
2026-04-14 03:43 -34.52137 -76.43958 33996 ft 474 kts 329°
2026-04-14 03:43 -34.46344 -76.47785 33996 ft 474 kts 329°
2026-04-14 03:44 -34.40567 -76.51597 33996 ft 474 kts 329°
2026-04-14 03:44 -34.34783 -76.55406 33996 ft 474 kts 329°
2026-04-14 03:45 -34.28962 -76.59234 33996 ft 474 kts 329°
2026-04-14 03:45 -34.23169 -76.63037 33996 ft 474 kts 329°
2026-04-14 03:46 -34.17350 -76.66852 33996 ft 474 kts 329°
2026-04-14 03:46 -34.11599 -76.70616 33996 ft 474 kts 329°
2026-04-14 03:47 -34.05769 -76.74426 33996 ft 474 kts 329°
2026-04-14 03:47 -33.99984 -76.78201 33996 ft 474 kts 329°
2026-04-14 03:48 -33.94185 -76.81978 33996 ft 474 kts 329°
2026-04-14 03:48 -33.88370 -76.85761 33996 ft 474 kts 329°
2026-04-14 03:49 -33.82553 -76.89539 33996 ft 474 kts 329°
2026-04-14 03:49 -33.76757 -76.93299 33996 ft 474 kts 329°
2026-04-14 03:50 -33.70695 -76.96551 33996 ft 477 kts 339°
2026-04-14 03:50 -33.64323 -76.98678 33997 ft 480 kts 344°
2026-04-14 03:51 -33.57773 -77.00384 33996 ft 481 kts 346°
2026-04-14 03:51 -33.51209 -77.01934 33996 ft 481 kts 346°
2026-04-14 03:52 -33.44606 -77.03453 33996 ft 481 kts 346°
2026-04-14 03:52 -33.38014 -77.04970 33996 ft 481 kts 346°
2026-04-14 03:53 -33.31423 -77.06500 33996 ft 481 kts 346°
2026-04-14 03:53 -33.24859 -77.08035 33996 ft 481 kts 346°
2026-04-14 03:54 -33.18295 -77.09581 33996 ft 481 kts 346°
2026-04-14 03:54 -33.11708 -77.11140 33996 ft 481 kts 346°
2026-04-14 03:55 -33.05131 -77.12702 33996 ft 481 kts 346°
2026-04-14 03:55 -32.98588 -77.14259 33996 ft 481 kts 346°
2026-04-14 03:56 -32.92035 -77.15820 33996 ft 481 kts 346°
2026-04-14 03:56 -32.85456 -77.17387 33996 ft 481 kts 346°
2026-04-14 03:57 -32.78859 -77.18959 33996 ft 481 kts 346°
2026-04-14 03:57 -32.72288 -77.20523 33996 ft 481 kts 346°
2026-04-14 03:58 -32.65715 -77.22086 33996 ft 481 kts 346°
2026-04-14 03:58 -32.59173 -77.23640 33996 ft 481 kts 346°
2026-04-14 03:59 -32.52610 -77.25198 33996 ft 481 kts 346°
2026-04-14 03:59 -32.46039 -77.26755 33996 ft 481 kts 346°
2026-04-14 04:00 -32.39446 -77.28316 33996 ft 481 kts 346°
2026-04-14 04:00 -32.32889 -77.29866 33996 ft 481 kts 346°
2026-04-14 04:01 -32.26329 -77.31414 33996 ft 481 kts 346°
2026-04-14 04:01 -32.19753 -77.32964 33996 ft 481 kts 346°
2026-04-14 04:02 -32.13163 -77.34515 33996 ft 481 kts 346°
2026-04-14 04:02 -32.06613 -77.36055 33996 ft 481 kts 346°
2026-04-14 04:03 -32.00042 -77.37597 33996 ft 481 kts 346°
2026-04-14 04:03 -31.93468 -77.39138 33996 ft 481 kts 346°
2026-04-14 04:04 -31.86905 -77.40674 33996 ft 481 kts 346°
2026-04-14 04:04 -31.80333 -77.42209 33996 ft 481 kts 346°
2026-04-14 04:05 -31.73746 -77.43746 33996 ft 481 kts 346°
2026-04-14 04:05 -31.67196 -77.45273 33996 ft 481 kts 346°
2026-04-14 04:06 -31.60637 -77.46799 33996 ft 481 kts 346°
2026-04-14 04:06 -31.54067 -77.48325 33996 ft 481 kts 346°
2026-04-14 04:07 -31.47498 -77.49849 33996 ft 481 kts 346°
2026-04-14 04:07 -31.40904 -77.51377 33996 ft 481 kts 346°
2026-04-14 04:08 -31.34337 -77.52896 33996 ft 481 kts 346°
2026-04-14 04:08 -31.27768 -77.54414 33996 ft 481 kts 346°
2026-04-14 04:09 -31.21205 -77.55928 33996 ft 481 kts 346°
2026-04-14 04:09 -31.14629 -77.57442 33996 ft 481 kts 346°
2026-04-14 04:10 -31.08025 -77.58961 33996 ft 481 kts 346°
2026-04-14 04:10 -31.02560 -77.60217 33996 ft 481 kts 346°
2026-04-14 04:11 -30.95969 -77.61729 33996 ft 481 kts 346°
2026-04-14 04:11 -30.89386 -77.63237 33996 ft 481 kts 346°
2026-04-14 04:12 -30.82834 -77.64737 33996 ft 481 kts 346°
2026-04-14 04:12 -30.76266 -77.66237 33996 ft 481 kts 346°
2026-04-14 04:13 -30.69695 -77.67737 33996 ft 481 kts 346°
2026-04-14 04:13 -30.63097 -77.69240 33996 ft 481 kts 346°
2026-04-14 04:14 -30.56532 -77.70734 33996 ft 481 kts 346°
2026-04-14 04:14 -30.49933 -77.72233 33996 ft 481 kts 346°
2026-04-14 04:15 -30.43398 -77.73716 33996 ft 481 kts 346°
2026-04-14 04:15 -30.36793 -77.75212 33996 ft 481 kts 346°
2026-04-14 04:16 -30.30253 -77.76692 33996 ft 481 kts 346°
2026-04-14 04:16 -30.23669 -77.78180 33996 ft 481 kts 346°
2026-04-14 04:17 -30.17091 -77.79664 33996 ft 481 kts 346°
2026-04-14 04:17 -30.10510 -77.81147 33996 ft 481 kts 346°
2026-04-14 04:18 -30.03954 -77.82623 33996 ft 481 kts 346°
2026-04-14 04:18 -29.97358 -77.84105 33996 ft 481 kts 346°
2026-04-14 04:19 -29.90795 -77.85578 33996 ft 481 kts 346°
2026-04-14 04:19 -29.84232 -77.87049 33996 ft 481 kts 346°
2026-04-14 04:20 -29.77624 -77.88529 33996 ft 481 kts 346°
2026-04-14 04:20 -29.71038 -77.90001 33996 ft 481 kts 346°
2026-04-14 04:21 -29.64474 -77.91466 33996 ft 481 kts 346°
2026-04-14 04:21 -29.57913 -77.92929 33996 ft 481 kts 346°
2026-04-14 04:22 -29.51330 -77.94395 33996 ft 481 kts 346°
2026-04-14 04:22 -29.44734 -77.95861 33996 ft 481 kts 346°
2026-04-14 04:23 -29.38160 -77.97321 33996 ft 481 kts 346°
2026-04-14 04:23 -29.31582 -77.98780 33996 ft 481 kts 346°
2026-04-14 04:24 -29.24996 -78.00239 33996 ft 481 kts 346°
2026-04-14 04:24 -29.18434 -78.01690 33996 ft 481 kts 346°
2026-04-14 04:25 -29.11830 -78.03149 33996 ft 481 kts 346°
2026-04-14 04:25 -29.05290 -78.04591 33996 ft 481 kts 346°
2026-04-14 04:26 -28.98695 -78.06045 33996 ft 481 kts 346°
2026-04-14 04:26 -28.92112 -78.07493 33996 ft 481 kts 346°
2026-04-14 04:27 -28.85538 -78.08938 33996 ft 481 kts 346°
2026-04-14 04:27 -28.78952 -78.10383 33996 ft 481 kts 346°
2026-04-14 04:28 -28.72373 -78.11825 33996 ft 481 kts 346°
2026-04-14 04:28 -28.65792 -78.13266 33996 ft 481 kts 346°
2026-04-14 04:29 -28.59199 -78.14707 33996 ft 481 kts 346°
2026-04-14 04:29 -28.52635 -78.16141 33996 ft 481 kts 346°
2026-04-14 04:30 -28.46034 -78.17580 33996 ft 481 kts 346°
2026-04-14 04:30 -28.39459 -78.19012 33996 ft 481 kts 346°
2026-04-14 04:31 -28.38383 -78.19246 33996 ft 481 kts 346°
2026-04-14 04:31 -28.33148 -78.20385 33996 ft 481 kts 346°
2026-04-14 04:32 -28.26938 -78.21734 33996 ft 481 kts 346°
2026-04-14 04:32 -28.20369 -78.23160 33996 ft 481 kts 346°
2026-04-14 04:33 -28.13763 -78.24591 33996 ft 481 kts 346°
2026-04-14 04:33 -28.07207 -78.26011 33996 ft 481 kts 346°
2026-04-14 04:34 -28.00605 -78.27438 33996 ft 481 kts 346°
2026-04-14 04:34 -27.94020 -78.28860 33996 ft 481 kts 346°
2026-04-14 04:35 -27.87467 -78.30273 33996 ft 481 kts 346°
2026-04-14 04:35 -27.80851 -78.31698 33996 ft 481 kts 346°
2026-04-14 04:36 -27.74279 -78.33112 33996 ft 481 kts 346°
2026-04-14 04:36 -27.67672 -78.34531 33996 ft 481 kts 346°
2026-04-14 04:37 -27.61102 -78.35941 33996 ft 481 kts 346°
2026-04-14 04:37 -27.54528 -78.37350 33996 ft 481 kts 346°
2026-04-14 04:38 -27.47960 -78.38756 33996 ft 481 kts 346°
2026-04-14 04:38 -27.41338 -78.40172 33996 ft 481 kts 346°
2026-04-14 04:39 -27.34776 -78.41573 33996 ft 481 kts 346°
2026-04-14 04:39 -27.28183 -78.42979 33996 ft 481 kts 346°
2026-04-14 04:40 -27.21632 -78.44375 33996 ft 481 kts 346°
2026-04-14 04:41 -27.11733 -78.46481 33996 ft 481 kts 346°
2026-04-14 04:41 -27.05166 -78.47875 33996 ft 481 kts 346°
2026-04-14 04:42 -26.99669 -78.49042 33996 ft 481 kts 346°
2026-04-14 04:42 -26.91991 -78.50669 33996 ft 481 kts 346°
2026-04-14 04:43 -26.86497 -78.51832 33996 ft 481 kts 346°
2026-04-14 04:43 -26.79885 -78.53230 33996 ft 481 kts 346°
2026-04-14 04:44 -26.73308 -78.54618 33996 ft 481 kts 346°
2026-04-14 04:44 -26.66749 -78.56002 33996 ft 481 kts 346°
2026-04-14 04:45 -26.60127 -78.57397 33996 ft 481 kts 346°
2026-04-14 04:45 -26.53580 -78.58775 33996 ft 481 kts 346°
2026-04-14 04:46 -26.46960 -78.60166 33996 ft 481 kts 346°
2026-04-14 04:46 -26.40389 -78.61546 33996 ft 481 kts 346°
2026-04-14 04:47 -26.33803 -78.62927 33996 ft 481 kts 346°
2026-04-14 04:47 -26.27227 -78.64304 33996 ft 481 kts 346°
2026-04-14 04:48 -26.20615 -78.65688 33996 ft 481 kts 346°
2026-04-14 04:48 -26.14029 -78.67064 33996 ft 481 kts 346°
2026-04-14 04:49 -26.07454 -78.68436 33996 ft 481 kts 346°
2026-04-14 04:49 -26.00866 -78.69810 33996 ft 481 kts 346°
2026-04-14 04:50 -25.94256 -78.71187 33996 ft 481 kts 346°
2026-04-14 04:50 -25.87674 -78.72556 33996 ft 481 kts 346°
2026-04-14 04:51 -25.81092 -78.73923 33996 ft 481 kts 346°
2026-04-14 04:51 -25.74510 -78.75290 33996 ft 481 kts 346°
2026-04-14 04:52 -25.67935 -78.76653 33996 ft 481 kts 346°
2026-04-14 04:52 -25.61321 -78.78022 33996 ft 481 kts 346°
2026-04-14 04:53 -25.54748 -78.79382 33996 ft 481 kts 346°
2026-04-14 04:53 -25.48167 -78.80742 33996 ft 481 kts 346°
2026-04-14 04:54 -25.41551 -78.82107 33996 ft 481 kts 346°
2026-04-14 04:54 -25.34968 -78.83464 33996 ft 481 kts 346°
2026-04-14 04:55 -25.28375 -78.84822 33996 ft 481 kts 346°
2026-04-14 04:55 -25.21791 -78.86176 33996 ft 481 kts 346°
2026-04-14 04:56 -25.15217 -78.87527 33996 ft 481 kts 346°
2026-04-14 04:56 -25.08599 -78.88886 33996 ft 481 kts 346°
2026-04-14 04:57 -25.02019 -78.90235 33996 ft 481 kts 346°
2026-04-14 04:57 -24.95436 -78.91583 33996 ft 481 kts 346°
2026-04-14 04:58 -24.88847 -78.92931 33996 ft 481 kts 346°
2026-04-14 04:58 -24.82238 -78.94281 33996 ft 481 kts 346°
2026-04-14 04:59 -24.75625 -78.95632 33996 ft 481 kts 346°
2026-04-14 04:59 -24.69059 -78.96970 33996 ft 481 kts 346°
2026-04-14 05:00 -24.62448 -78.98317 33996 ft 481 kts 346°
2026-04-14 05:00 -24.55869 -78.99656 33996 ft 481 kts 346°
2026-04-14 05:01 -24.49292 -79.00993 33996 ft 481 kts 346°
2026-04-14 05:01 -24.42695 -79.02332 33996 ft 481 kts 346°
2026-04-14 05:02 -24.36112 -79.03667 33996 ft 481 kts 346°
2026-04-14 05:02 -24.29504 -79.05006 33996 ft 481 kts 346°
2026-04-14 05:03 -24.22948 -79.06333 33996 ft 481 kts 347°
2026-04-14 05:03 -24.16336 -79.07670 33996 ft 481 kts 347°
2026-04-14 05:04 -24.09739 -79.09002 33996 ft 481 kts 347°
2026-04-14 05:04 -24.03157 -79.10331 33996 ft 481 kts 347°
2026-04-14 05:05 -23.96571 -79.11658 33996 ft 481 kts 347°
2026-04-14 05:05 -23.89999 -79.12981 33996 ft 481 kts 347°
2026-04-14 05:06 -23.83414 -79.14306 33996 ft 481 kts 347°
2026-04-14 05:06 -23.76785 -79.15638 33996 ft 481 kts 347°
2026-04-14 05:07 -23.70215 -79.16956 33996 ft 481 kts 347°
2026-04-14 05:07 -23.63620 -79.18279 33996 ft 481 kts 347°
2026-04-14 05:08 -23.57016 -79.19602 33996 ft 481 kts 347°
2026-04-14 05:08 -23.50427 -79.20920 33996 ft 481 kts 347°
2026-04-14 05:09 -23.43826 -79.22240 33996 ft 481 kts 347°
2026-04-14 05:09 -23.37229 -79.23557 33996 ft 481 kts 347°
2026-04-14 05:10 -23.30647 -79.24870 33996 ft 481 kts 347°
2026-04-14 05:10 -23.26006 -79.25795 33996 ft 481 kts 347°
2026-04-14 05:11 -23.20499 -79.26892 33996 ft 481 kts 347°
2026-04-14 05:11 -23.13893 -79.28207 33996 ft 481 kts 347°
2026-04-14 05:12 -23.07324 -79.29512 33996 ft 481 kts 347°
2026-04-14 05:12 -23.00731 -79.30822 33996 ft 481 kts 347°
2026-04-14 05:13 -22.94129 -79.32132 33996 ft 481 kts 347°
2026-04-14 05:13 -22.88621 -79.33224 33996 ft 481 kts 347°
2026-04-14 05:14 -22.82019 -79.34531 33996 ft 481 kts 347°
2026-04-14 05:14 -22.75417 -79.35837 33996 ft 481 kts 347°
2026-04-14 05:15 -22.68843 -79.37136 33996 ft 481 kts 347°
2026-04-14 05:15 -22.62252 -79.38438 33996 ft 481 kts 347°
2026-04-14 05:16 -22.55675 -79.39735 33996 ft 481 kts 347°
2026-04-14 05:16 -22.49053 -79.41040 33996 ft 481 kts 347°
2026-04-14 05:17 -22.42444 -79.42341 33996 ft 481 kts 347°
2026-04-14 05:17 -22.35863 -79.43636 33996 ft 481 kts 347°
2026-04-14 05:18 -22.29287 -79.44928 33996 ft 481 kts 347°
2026-04-14 05:18 -22.22662 -79.46229 33996 ft 481 kts 347°
2026-04-14 05:19 -22.16068 -79.47522 33996 ft 481 kts 347°
2026-04-14 05:19 -22.09467 -79.48815 33996 ft 481 kts 347°
2026-04-14 05:20 -22.02882 -79.50104 33996 ft 481 kts 347°
2026-04-14 05:20 -21.96295 -79.51392 33996 ft 481 kts 347°
2026-04-14 05:21 -21.89693 -79.52682 33996 ft 481 kts 347°
2026-04-14 05:21 -21.83078 -79.53974 33996 ft 481 kts 347°
2026-04-14 05:22 -21.76484 -79.55259 33996 ft 481 kts 347°
2026-04-14 05:22 -21.69885 -79.56545 33996 ft 481 kts 347°
2026-04-14 05:23 -21.63312 -79.57825 33996 ft 481 kts 347°
2026-04-14 05:23 -21.56721 -79.59106 33996 ft 481 kts 347°
2026-04-14 05:24 -21.50110 -79.60391 33996 ft 481 kts 347°
2026-04-14 05:24 -21.43536 -79.61666 33995 ft 479 kts 347°
2026-04-14 05:25 -21.36963 -79.62940 33995 ft 478 kts 347°
2026-04-14 05:25 -21.30423 -79.64207 33996 ft 477 kts 347°
2026-04-14 05:26 -21.23904 -79.65469 33996 ft 476 kts 347°
2026-04-14 05:26 -21.17369 -79.66733 33996 ft 476 kts 347°
2026-04-14 05:27 -21.10844 -79.67994 33996 ft 476 kts 347°
2026-04-14 05:27 -21.04331 -79.69252 33996 ft 476 kts 347°
2026-04-14 05:28 -20.97827 -79.70507 33996 ft 476 kts 347°
2026-04-14 05:28 -20.91311 -79.71763 33996 ft 476 kts 347°
2026-04-14 05:29 -20.84795 -79.73018 33996 ft 476 kts 347°
2026-04-14 05:29 -20.78281 -79.74271 33996 ft 476 kts 347°
2026-04-14 05:30 -20.71737 -79.75529 33996 ft 476 kts 347°
2026-04-14 05:30 -20.65224 -79.76780 33996 ft 476 kts 347°
2026-04-14 05:31 -20.58720 -79.78028 33996 ft 476 kts 347°
2026-04-14 05:31 -20.52162 -79.79285 33996 ft 476 kts 347°
2026-04-14 05:32 -20.45694 -79.80524 33996 ft 476 kts 347°
2026-04-14 05:32 -20.39137 -79.81779 33996 ft 476 kts 347°
2026-04-14 05:33 -20.32640 -79.83021 33996 ft 476 kts 347°
2026-04-14 05:33 -20.26127 -79.84266 33996 ft 476 kts 347°
2026-04-14 05:34 -20.16329 -79.86136 33996 ft 476 kts 347°
2026-04-14 05:34 -20.09784 -79.87383 33996 ft 476 kts 347°
2026-04-14 05:35 -20.03274 -79.88623 33996 ft 476 kts 347°
2026-04-14 05:35 -19.96774 -79.89861 33996 ft 476 kts 347°
2026-04-14 05:36 -19.90252 -79.91101 33996 ft 476 kts 347°
2026-04-14 05:36 -19.83747 -79.92337 33996 ft 476 kts 347°
2026-04-14 05:37 -19.77196 -79.93581 33996 ft 476 kts 347°
2026-04-14 05:37 -19.70707 -79.94811 33996 ft 476 kts 347°
2026-04-14 05:38 -19.64186 -79.96047 33996 ft 476 kts 347°
2026-04-14 05:38 -19.57663 -79.97283 33996 ft 476 kts 347°
2026-04-14 05:39 -19.51108 -79.98523 33996 ft 476 kts 347°
2026-04-14 05:39 -19.44602 -79.99753 33996 ft 476 kts 347°
2026-04-14 05:40 -19.38070 -80.00987 33996 ft 476 kts 347°
2026-04-14 05:40 -19.31561 -80.02216 33996 ft 476 kts 347°
2026-04-14 05:41 -19.25027 -80.03448 33996 ft 476 kts 347°
2026-04-14 05:41 -19.18504 -80.04678 33996 ft 476 kts 347°
2026-04-14 05:42 -19.11988 -80.05905 33996 ft 476 kts 347°
2026-04-14 05:42 -19.05471 -80.07131 33996 ft 476 kts 347°
2026-04-14 05:43 -18.98945 -80.08358 33996 ft 476 kts 347°
2026-04-14 05:43 -18.92434 -80.09581 33996 ft 476 kts 347°
2026-04-14 05:44 -18.85900 -80.10808 33996 ft 476 kts 347°
2026-04-14 05:44 -18.79389 -80.12029 33996 ft 476 kts 347°
2026-04-14 05:45 -18.73972 -80.13044 33996 ft 476 kts 347°
2026-04-14 05:45 -18.67445 -80.14267 33996 ft 476 kts 347°
2026-04-14 05:46 -18.60891 -80.15494 33996 ft 476 kts 347°
2026-04-14 05:46 -18.54388 -80.16710 33996 ft 476 kts 347°
2026-04-14 05:47 -18.47877 -80.17927 33996 ft 476 kts 347°
2026-04-14 05:47 -18.41328 -80.19150 33996 ft 476 kts 347°
2026-04-14 05:48 -18.34918 -80.20760 33996 ft 472 kts 338°
2026-04-14 05:48 -18.28888 -80.23359 33997 ft 470 kts 332°
2026-04-14 05:49 -18.23008 -80.26360 33996 ft 469 kts 330°
2026-04-14 05:49 -18.17191 -80.29489 33996 ft 469 kts 330°
2026-04-14 05:50 -18.11372 -80.32658 33996 ft 469 kts 330°
2026-04-14 05:50 -18.05577 -80.35813 33996 ft 469 kts 330°
2026-04-14 05:51 -17.99770 -80.38959 33996 ft 469 kts 330°
2026-04-14 05:51 -17.93991 -80.42076 33996 ft 469 kts 330°
2026-04-14 05:52 -17.88147 -80.45213 33996 ft 469 kts 330°
2026-04-14 05:52 -17.82370 -80.48305 33996 ft 469 kts 330°
2026-04-14 05:53 -17.76527 -80.51423 33996 ft 469 kts 330°
2026-04-14 05:53 -17.70735 -80.54506 33996 ft 469 kts 330°
2026-04-14 05:54 -17.64906 -80.57604 33996 ft 469 kts 330°
2026-04-14 05:54 -17.59066 -80.60703 33996 ft 469 kts 330°
2026-04-14 05:55 -17.53233 -80.63795 33996 ft 469 kts 330°
2026-04-14 05:55 -17.47418 -80.66873 33996 ft 469 kts 330°
2026-04-14 05:56 -17.41607 -80.69946 33996 ft 469 kts 330°
2026-04-14 05:56 -17.35772 -80.73030 33996 ft 469 kts 330°
2026-04-14 05:57 -17.29956 -80.76100 33996 ft 469 kts 330°
2026-04-14 05:57 -17.24127 -80.79175 33996 ft 469 kts 330°
2026-04-14 05:58 -17.18289 -80.82252 33996 ft 469 kts 330°
2026-04-14 05:58 -17.12445 -80.85330 33996 ft 469 kts 330°
2026-04-14 05:59 -17.06620 -80.88396 33996 ft 469 kts 330°
2026-04-14 05:59 -17.00774 -80.91471 33996 ft 469 kts 330°
2026-04-14 06:00 -16.94943 -80.94535 33996 ft 469 kts 330°
2026-04-14 06:00 -16.89102 -80.97603 33996 ft 469 kts 330°
2026-04-14 06:01 -16.83288 -81.00654 33996 ft 469 kts 330°
2026-04-14 06:01 -16.77465 -81.03708 33996 ft 469 kts 330°
2026-04-14 06:02 -16.71601 -81.06781 33996 ft 469 kts 330°
2026-04-14 06:02 -16.65787 -81.09826 33996 ft 469 kts 330°
2026-04-14 06:03 -16.59938 -81.12887 33996 ft 469 kts 330°
2026-04-14 06:04 -16.51185 -81.17464 33996 ft 469 kts 330°
2026-04-14 06:04 -16.45350 -81.20513 33996 ft 469 kts 330°
2026-04-14 06:05 -16.39504 -81.23565 33996 ft 469 kts 330°
2026-04-14 06:05 -16.33666 -81.26611 33996 ft 469 kts 330°
2026-04-14 06:06 -16.27814 -81.29663 33996 ft 469 kts 330°
2026-04-14 06:06 -16.21989 -81.32698 33996 ft 469 kts 330°
2026-04-14 06:07 -16.16162 -81.35732 33996 ft 469 kts 330°
2026-04-14 06:07 -16.10314 -81.38775 33996 ft 469 kts 330°
2026-04-14 06:08 -16.04453 -81.41823 33996 ft 469 kts 330°
2026-04-14 06:08 -15.98634 -81.44847 33996 ft 469 kts 330°
2026-04-14 06:09 -15.92786 -81.47884 33996 ft 469 kts 330°
2026-04-14 06:09 -15.86954 -81.50911 33996 ft 469 kts 330°
2026-04-14 06:10 -15.81088 -81.53954 33996 ft 469 kts 330°
2026-04-14 06:10 -15.75266 -81.56971 33996 ft 469 kts 330°
2026-04-14 06:11 -15.69392 -81.60013 33996 ft 469 kts 330°
2026-04-14 06:11 -15.63589 -81.63018 33996 ft 469 kts 330°
2026-04-14 06:12 -15.57714 -81.66057 33996 ft 469 kts 331°
2026-04-14 06:12 -15.51880 -81.69073 33996 ft 469 kts 331°
2026-04-14 06:13 -15.46047 -81.72086 33996 ft 469 kts 331°
2026-04-14 06:13 -15.40218 -81.75096 33996 ft 469 kts 331°
2026-04-14 06:14 -15.34366 -81.78116 33996 ft 469 kts 331°
2026-04-14 06:14 -15.28509 -81.81137 33996 ft 469 kts 331°
2026-04-14 06:15 -15.22653 -81.84154 33996 ft 469 kts 331°
2026-04-14 06:15 -15.16821 -81.87158 33996 ft 469 kts 331°
2026-04-14 06:16 -15.10986 -81.90162 33996 ft 469 kts 331°
2026-04-14 06:16 -15.06101 -81.92674 33996 ft 469 kts 331°
2026-04-14 06:17 -15.00249 -81.95683 33996 ft 469 kts 331°
2026-04-14 06:17 -14.94417 -81.98680 33996 ft 469 kts 331°
2026-04-14 06:18 -14.88579 -82.01678 33996 ft 469 kts 331°
2026-04-14 06:18 -14.82734 -82.04677 33996 ft 469 kts 331°
2026-04-14 06:19 -14.76881 -82.07679 33996 ft 469 kts 331°
2026-04-14 06:19 -14.71025 -82.10681 33996 ft 469 kts 331°
2026-04-14 06:20 -14.65179 -82.13676 33996 ft 469 kts 331°
2026-04-14 06:20 -14.59305 -82.16683 33996 ft 469 kts 331°
2026-04-14 06:21 -14.53490 -82.19658 33996 ft 469 kts 331°
2026-04-14 06:21 -14.47607 -82.22667 33996 ft 469 kts 331°
2026-04-14 06:22 -14.41738 -82.25666 33996 ft 469 kts 331°
2026-04-14 06:22 -14.35918 -82.28638 33996 ft 469 kts 331°
2026-04-14 06:23 -14.30052 -82.31633 33996 ft 469 kts 331°
2026-04-14 06:23 -14.24211 -82.34612 33996 ft 469 kts 331°
2026-04-14 06:24 -14.18341 -82.37605 33996 ft 469 kts 331°
2026-04-14 06:24 -14.12483 -82.40590 33996 ft 469 kts 331°
2026-04-14 06:25 -14.06626 -82.43573 33996 ft 469 kts 331°
2026-04-14 06:25 -14.00787 -82.46545 33996 ft 469 kts 331°
2026-04-14 06:26 -13.94917 -82.49531 33996 ft 469 kts 331°
2026-04-14 06:26 -13.89058 -82.52509 33996 ft 469 kts 331°
2026-04-14 06:27 -13.83210 -82.55481 33996 ft 469 kts 331°
2026-04-14 06:27 -13.77344 -82.58460 33996 ft 469 kts 331°
2026-04-14 06:28 -13.71511 -82.61420 33996 ft 469 kts 331°
2026-04-14 06:28 -13.65660 -82.64388 33996 ft 469 kts 331°
2026-04-14 06:29 -13.59785 -82.67366 33996 ft 469 kts 331°
2026-04-14 06:29 -13.53907 -82.70344 33996 ft 469 kts 331°
2026-04-14 06:30 -13.48043 -82.73314 33996 ft 469 kts 331°
2026-04-14 06:30 -13.42198 -82.76272 33996 ft 469 kts 331°
2026-04-14 06:31 -13.36330 -82.79241 33996 ft 469 kts 331°
2026-04-14 06:31 -13.30498 -82.82189 33996 ft 469 kts 331°
2026-04-14 06:32 -13.24633 -82.85153 33996 ft 469 kts 331°
2026-04-14 06:32 -13.18758 -82.88119 33996 ft 469 kts 331°
2026-04-14 06:33 -13.12903 -82.91075 33996 ft 469 kts 331°
2026-04-14 06:33 -13.07050 -82.94028 33996 ft 469 kts 331°
2026-04-14 06:34 -12.98219 -82.98480 33996 ft 469 kts 331°
2026-04-14 06:34 -12.92349 -83.01437 33996 ft 469 kts 331°
2026-04-14 06:35 -12.86529 -83.04368 33996 ft 469 kts 331°
2026-04-14 06:35 -12.80649 -83.07327 33996 ft 469 kts 331°
2026-04-14 06:36 -12.74803 -83.10268 33996 ft 469 kts 331°
2026-04-14 06:36 -12.68912 -83.13229 33996 ft 469 kts 331°
2026-04-14 06:37 -12.63080 -83.16160 33996 ft 469 kts 331°
2026-04-14 06:37 -12.57203 -83.19112 33996 ft 469 kts 331°
2026-04-14 06:38 -12.51310 -83.22070 33996 ft 469 kts 331°
2026-04-14 06:38 -12.45453 -83.25008 33996 ft 469 kts 331°
2026-04-14 06:39 -12.39597 -83.27945 33996 ft 469 kts 331°
2026-04-14 06:39 -12.33748 -83.30877 33996 ft 469 kts 331°
2026-04-14 06:40 -12.27859 -83.33827 33996 ft 469 kts 331°
2026-04-14 06:40 -12.21979 -83.36771 33996 ft 469 kts 331°
2026-04-14 06:41 -12.16147 -83.39690 33996 ft 469 kts 331°
2026-04-14 06:41 -12.10250 -83.42640 33996 ft 469 kts 331°
2026-04-14 06:42 -12.04390 -83.45570 33996 ft 469 kts 331°
2026-04-14 06:42 -11.98540 -83.48493 33996 ft 469 kts 331°
2026-04-14 06:43 -11.92657 -83.51432 33996 ft 469 kts 331°
2026-04-14 06:43 -11.86815 -83.54349 33996 ft 469 kts 331°
2026-04-14 06:44 -11.80913 -83.57294 33996 ft 469 kts 331°
2026-04-14 06:44 -11.75042 -83.60222 33996 ft 469 kts 331°
2026-04-14 06:45 -11.69203 -83.63133 33996 ft 469 kts 331°
2026-04-14 06:45 -11.63295 -83.66077 33996 ft 469 kts 331°
2026-04-14 06:46 -11.55469 -83.69974 33996 ft 469 kts 331°
2026-04-14 06:47 -11.49600 -83.72895 33996 ft 469 kts 331°
2026-04-14 06:47 -11.43742 -83.75810 33996 ft 469 kts 331°
2026-04-14 06:48 -11.37868 -83.78731 33996 ft 469 kts 331°
2026-04-14 06:48 -11.32029 -83.81633 33996 ft 469 kts 331°
2026-04-14 06:49 -11.26127 -83.84566 33996 ft 469 kts 331°
2026-04-14 06:49 -11.20269 -83.87475 33996 ft 469 kts 331°
2026-04-14 06:50 -11.14390 -83.90393 33996 ft 469 kts 331°
2026-04-14 06:50 -11.08510 -83.93311 33996 ft 469 kts 331°
2026-04-14 06:51 -11.02658 -83.96212 33996 ft 469 kts 331°
2026-04-14 06:51 -10.96762 -83.99135 33996 ft 469 kts 331°
2026-04-14 06:52 -10.90883 -84.02048 33996 ft 469 kts 331°
2026-04-14 06:52 -10.85017 -84.04953 33996 ft 469 kts 331°
2026-04-14 06:53 -10.79149 -84.07859 33996 ft 469 kts 331°
2026-04-14 06:53 -10.73276 -84.10765 33996 ft 469 kts 331°
2026-04-14 06:54 -10.67397 -84.13672 33996 ft 469 kts 331°
2026-04-14 06:54 -10.61531 -84.16573 33996 ft 469 kts 331°
2026-04-14 06:55 -10.55657 -84.19476 33996 ft 469 kts 331°
2026-04-14 06:55 -10.49767 -84.22385 33996 ft 469 kts 331°
2026-04-14 06:56 -10.43884 -84.25290 33996 ft 469 kts 331°
2026-04-14 06:56 -10.38006 -84.28191 33996 ft 469 kts 331°
2026-04-14 06:57 -10.32127 -84.31091 33996 ft 469 kts 331°
2026-04-14 06:57 -10.26277 -84.33976 33996 ft 469 kts 331°
2026-04-14 06:58 -10.20371 -84.36888 33996 ft 469 kts 331°
2026-04-14 06:58 -10.14502 -84.39780 33996 ft 469 kts 331°
2026-04-14 06:59 -10.08641 -84.42667 33996 ft 469 kts 331°
2026-04-14 06:59 -10.02756 -84.45564 33996 ft 469 kts 331°
2026-04-14 07:00 -9.96885 -84.48453 33996 ft 469 kts 331°
2026-04-14 07:00 -9.91001 -84.51348 33996 ft 469 kts 331°
2026-04-14 07:01 -9.85144 -84.54228 33996 ft 469 kts 331°
2026-04-14 07:01 -9.79236 -84.57132 33996 ft 469 kts 331°
2026-04-14 07:02 -9.73354 -84.60023 33996 ft 469 kts 331°
2026-04-14 07:02 -9.67495 -84.62900 33996 ft 469 kts 331°
2026-04-14 07:03 -9.61624 -84.65783 33996 ft 469 kts 331°
2026-04-14 07:03 -9.55753 -84.68664 33996 ft 469 kts 331°
2026-04-14 07:04 -9.49864 -84.71553 33996 ft 469 kts 331°
2026-04-14 07:04 -9.43958 -84.74449 33996 ft 469 kts 331°
2026-04-14 07:05 -9.38100 -84.77321 33996 ft 469 kts 331°
2026-04-14 07:05 -9.32229 -84.80198 33996 ft 469 kts 331°
2026-04-14 07:06 -9.26337 -84.83084 33996 ft 469 kts 331°
2026-04-14 07:06 -9.20461 -84.85961 33996 ft 469 kts 331°
2026-04-14 07:07 -9.14611 -84.88825 33996 ft 469 kts 331°
2026-04-14 07:07 -9.08709 -84.91713 33996 ft 469 kts 331°
2026-04-14 07:08 -9.02850 -84.94579 33996 ft 469 kts 331°
2026-04-14 07:08 -8.96957 -84.97460 33996 ft 469 kts 331°
2026-04-14 07:09 -8.91044 -85.00350 33996 ft 469 kts 331°
2026-04-14 07:09 -8.85170 -85.03220 33996 ft 469 kts 331°
2026-04-14 07:10 -8.79289 -85.06092 33996 ft 469 kts 331°
2026-04-14 07:10 -8.73430 -85.08953 33996 ft 469 kts 332°
2026-04-14 07:11 -8.67518 -85.11839 33996 ft 469 kts 332°
2026-04-14 07:11 -8.61627 -85.14713 33996 ft 469 kts 332°
2026-04-14 07:12 -8.55758 -85.17575 33996 ft 469 kts 332°
2026-04-14 07:12 -8.49886 -85.20438 33996 ft 469 kts 332°
2026-04-14 07:13 -8.43973 -85.23320 33996 ft 469 kts 332°
2026-04-14 07:13 -8.38101 -85.26181 33996 ft 469 kts 332°
2026-04-14 07:14 -8.32232 -85.29040 33996 ft 469 kts 332°
2026-04-14 07:14 -8.26333 -85.31912 33996 ft 469 kts 332°
2026-04-14 07:15 -8.20461 -85.34770 33996 ft 469 kts 332°
2026-04-14 07:15 -8.14565 -85.37639 33996 ft 469 kts 332°
2026-04-14 07:16 -8.08698 -85.40493 33996 ft 469 kts 332°
2026-04-14 07:16 -8.02791 -85.43365 33996 ft 469 kts 332°
2026-04-14 07:17 -7.96926 -85.46216 33996 ft 469 kts 332°
2026-04-14 07:17 -7.91043 -85.49075 33996 ft 469 kts 332°
2026-04-14 07:18 -7.86117 -85.51468 33996 ft 469 kts 332°
2026-04-14 07:18 -7.80251 -85.54317 33996 ft 469 kts 332°
2026-04-14 07:19 -7.74342 -85.57186 33996 ft 469 kts 332°
2026-04-14 07:19 -7.68455 -85.60043 33996 ft 469 kts 332°
2026-04-14 07:20 -7.62585 -85.62892 33996 ft 469 kts 332°
2026-04-14 07:20 -7.56684 -85.65754 33996 ft 469 kts 332°
2026-04-14 07:21 -7.50782 -85.68616 33996 ft 469 kts 332°
2026-04-14 07:21 -7.44919 -85.71458 33996 ft 469 kts 332°
2026-04-14 07:22 -7.39034 -85.74310 33996 ft 469 kts 332°
2026-04-14 07:22 -7.33127 -85.77172 33996 ft 469 kts 332°
2026-04-14 07:23 -7.27254 -85.80016 33996 ft 469 kts 332°
2026-04-14 07:23 -7.21376 -85.82863 33996 ft 469 kts 332°
2026-04-14 07:24 -7.15480 -85.85716 33996 ft 469 kts 332°
2026-04-14 07:24 -7.09558 -85.88582 33996 ft 469 kts 332°
2026-04-14 07:25 -7.03675 -85.91428 33996 ft 469 kts 332°
2026-04-14 07:25 -6.97787 -85.94276 33996 ft 469 kts 332°
2026-04-14 07:26 -6.91899 -85.97123 33996 ft 469 kts 332°
2026-04-14 07:26 -6.86016 -85.99967 33996 ft 469 kts 332°
2026-04-14 07:27 -6.80133 -86.02809 33996 ft 469 kts 332°
2026-04-14 07:27 -6.74243 -86.05654 33996 ft 469 kts 332°
2026-04-14 07:28 -6.68312 -86.08519 33996 ft 469 kts 332°
2026-04-14 07:28 -6.62430 -86.11359 33996 ft 469 kts 332°
2026-04-14 07:29 -6.56540 -86.14203 33996 ft 469 kts 332°
2026-04-14 07:29 -6.50684 -86.17029 33996 ft 469 kts 332°
2026-04-14 07:30 -6.44772 -86.19881 33996 ft 469 kts 332°
2026-04-14 07:30 -6.38899 -86.22713 33996 ft 469 kts 332°
2026-04-14 07:31 -6.33002 -86.25557 33996 ft 469 kts 332°
2026-04-14 07:31 -6.27110 -86.28397 33996 ft 469 kts 332°
2026-04-14 07:32 -6.21233 -86.31230 33996 ft 469 kts 332°
2026-04-14 07:32 -6.15335 -86.34072 33996 ft 469 kts 332°
2026-04-14 07:33 -6.09434 -86.36915 33996 ft 469 kts 332°
2026-04-14 07:33 -6.03554 -86.39747 33996 ft 469 kts 332°
2026-04-14 07:34 -5.91747 -86.45431 33996 ft 469 kts 332°
2026-04-14 07:35 -5.85870 -86.48259 33996 ft 469 kts 332°
2026-04-14 07:35 -5.79976 -86.51095 33996 ft 469 kts 332°
2026-04-14 07:36 -5.74077 -86.53933 33996 ft 469 kts 332°
2026-04-14 07:36 -5.68195 -86.56761 33996 ft 469 kts 332°
2026-04-14 07:37 -5.62304 -86.59594 33996 ft 469 kts 332°
2026-04-14 07:37 -5.56428 -86.62419 33996 ft 469 kts 332°
2026-04-14 07:38 -5.50515 -86.65261 33996 ft 469 kts 332°
2026-04-14 07:38 -5.44612 -86.68097 33996 ft 469 kts 332°
2026-04-14 07:39 -5.38733 -86.70921 33996 ft 469 kts 332°
2026-04-14 07:39 -5.32859 -86.73742 33996 ft 469 kts 332°
2026-04-14 07:40 -5.26948 -86.76581 33996 ft 469 kts 332°
2026-04-14 07:40 -5.21071 -86.79403 33996 ft 469 kts 332°
2026-04-14 07:41 -5.15179 -86.82230 33996 ft 469 kts 332°
2026-04-14 07:41 -5.09265 -86.85068 33996 ft 469 kts 332°
2026-04-14 07:42 -5.03381 -86.87892 33996 ft 469 kts 332°
2026-04-14 07:42 -4.97497 -86.90714 33996 ft 469 kts 332°
2026-04-14 07:43 -4.91583 -86.93550 33996 ft 469 kts 332°
2026-04-14 07:43 -4.85684 -86.96379 33996 ft 469 kts 332°
2026-04-14 07:44 -4.79793 -86.99203 33996 ft 469 kts 332°
2026-04-14 07:44 -4.73881 -87.02036 33996 ft 469 kts 332°
2026-04-14 07:45 -4.67983 -87.04863 33996 ft 469 kts 332°
2026-04-14 07:45 -4.62103 -87.07680 33996 ft 469 kts 332°
2026-04-14 07:46 -4.56213 -87.10502 33996 ft 469 kts 332°
2026-04-14 07:46 -4.50330 -87.13320 33996 ft 469 kts 332°
2026-04-14 07:47 -4.44422 -87.16149 33996 ft 469 kts 332°
2026-04-14 07:47 -4.38542 -87.18964 33996 ft 469 kts 332°
2026-04-14 07:48 -4.32634 -87.21792 33996 ft 469 kts 332°
2026-04-14 07:48 -4.27740 -87.24135 33996 ft 469 kts 332°
2026-04-14 07:49 -4.21829 -87.26963 33996 ft 469 kts 332°
2026-04-14 07:49 -4.15923 -87.29789 33996 ft 469 kts 332°
2026-04-14 07:50 -4.10043 -87.32602 33996 ft 469 kts 332°
2026-04-14 07:50 -4.04128 -87.35431 33996 ft 469 kts 332°
2026-04-14 07:51 -3.98258 -87.38239 33996 ft 469 kts 332°
2026-04-14 07:51 -3.92361 -87.41058 33996 ft 469 kts 332°
2026-04-14 07:52 -3.86449 -87.43885 33996 ft 469 kts 332°
2026-04-14 07:52 -3.80566 -87.46697 33996 ft 469 kts 332°
2026-04-14 07:53 -3.74654 -87.49522 33996 ft 469 kts 332°
2026-04-14 07:53 -3.68751 -87.52343 33996 ft 469 kts 332°
2026-04-14 07:54 -3.62854 -87.55161 33996 ft 469 kts 332°
2026-04-14 07:54 -3.56958 -87.57977 33996 ft 469 kts 332°
2026-04-14 07:55 -3.51083 -87.60783 33996 ft 469 kts 332°
2026-04-14 07:55 -3.45157 -87.63614 33996 ft 469 kts 332°
2026-04-14 07:56 -3.39298 -87.66412 33996 ft 469 kts 332°
2026-04-14 07:56 -3.33397 -87.69229 33996 ft 469 kts 332°
2026-04-14 07:57 -3.27479 -87.72054 33996 ft 469 kts 332°
2026-04-14 07:57 -3.21606 -87.74857 33996 ft 469 kts 332°
2026-04-14 07:58 -3.15711 -87.77671 33996 ft 469 kts 332°
2026-04-14 07:58 -3.09790 -87.80497 33996 ft 469 kts 332°
2026-04-14 07:59 -3.03922 -87.83296 33996 ft 469 kts 332°
2026-04-14 07:59 -2.98006 -87.86119 33996 ft 469 kts 332°
2026-04-14 08:00 -2.92114 -87.88930 33996 ft 469 kts 332°
2026-04-14 08:00 -2.86213 -87.91744 33996 ft 469 kts 332°
2026-04-14 08:01 -2.80332 -87.94549 33996 ft 469 kts 332°
2026-04-14 08:01 -2.74417 -87.97369 33996 ft 469 kts 332°
2026-04-14 08:02 -2.68520 -88.00181 33996 ft 469 kts 332°
2026-04-14 08:02 -2.62617 -88.02996 33996 ft 469 kts 332°
2026-04-14 08:03 -2.56730 -88.05802 33996 ft 469 kts 332°
2026-04-14 08:03 -2.50840 -88.08610 33996 ft 469 kts 332°
2026-04-14 08:04 -2.44919 -88.11432 33996 ft 469 kts 332°
2026-04-14 08:04 -2.39040 -88.14234 33996 ft 469 kts 332°
2026-04-14 08:05 -2.33122 -88.17054 33996 ft 469 kts 332°
2026-04-14 08:05 -2.27220 -88.19866 33996 ft 469 kts 332°
2026-04-14 08:06 -2.21333 -88.22671 33996 ft 469 kts 332°
2026-04-14 08:06 -2.15434 -88.25481 33996 ft 469 kts 332°
2026-04-14 08:07 -2.09548 -88.28285 33996 ft 469 kts 332°
2026-04-14 08:07 -2.03626 -88.31106 33996 ft 469 kts 332°
2026-04-14 08:08 -1.97756 -88.33901 33996 ft 469 kts 332°
2026-04-14 08:08 -1.91854 -88.36712 33996 ft 469 kts 332°
2026-04-14 08:09 -1.85953 -88.39522 33996 ft 469 kts 332°
2026-04-14 08:09 -1.80053 -88.42331 33996 ft 469 kts 332°
2026-04-14 08:10 -1.74132 -88.45151 33996 ft 469 kts 332°
2026-04-14 08:10 -1.68219 -88.47966 33996 ft 469 kts 332°
2026-04-14 08:11 -1.62334 -88.50767 33996 ft 469 kts 332°
2026-04-14 08:11 -1.56430 -88.53578 33996 ft 469 kts 332°
2026-04-14 08:12 -1.50560 -88.56372 33996 ft 469 kts 332°
2026-04-14 08:12 -1.44648 -88.59186 33996 ft 469 kts 332°
2026-04-14 08:13 -1.38752 -88.61992 33996 ft 469 kts 332°
2026-04-14 08:13 -1.32848 -88.64802 33996 ft 469 kts 332°
2026-04-14 08:14 -1.26939 -88.67614 33996 ft 469 kts 332°
2026-04-14 08:14 -1.21059 -88.70412 33996 ft 469 kts 332°
2026-04-14 08:15 -1.15152 -88.73223 33996 ft 469 kts 332°
2026-04-14 08:15 -1.09276 -88.76019 33996 ft 469 kts 332°
2026-04-14 08:16 -1.03359 -88.78835 33996 ft 469 kts 332°
2026-04-14 08:16 -0.97451 -88.81645 33996 ft 469 kts 332°
2026-04-14 08:17 -0.91541 -88.84457 33996 ft 469 kts 332°
2026-04-14 08:17 -0.85667 -88.87252 33996 ft 469 kts 332°
2026-04-14 08:18 -0.79765 -88.90060 33996 ft 469 kts 332°
2026-04-14 08:18 -0.73835 -88.92880 33996 ft 469 kts 332°
2026-04-14 08:19 -0.67954 -88.95678 33996 ft 469 kts 332°
2026-04-14 08:19 -0.62055 -88.98484 33996 ft 469 kts 332°
2026-04-14 08:20 -0.57135 -89.00825 33996 ft 469 kts 332°
2026-04-14 08:20 -0.51233 -89.03632 33996 ft 469 kts 332°
2026-04-14 08:21 -0.45321 -89.06445 33996 ft 469 kts 332°
2026-04-14 08:21 -0.39453 -89.09235 33996 ft 469 kts 332°
2026-04-14 08:22 -0.33563 -89.12037 33996 ft 469 kts 332°
2026-04-14 08:22 -0.27640 -89.14854 33996 ft 469 kts 332°
2026-04-14 08:23 -0.21736 -89.17663 33996 ft 469 kts 332°
2026-04-14 08:23 -0.15832 -89.20470 33996 ft 469 kts 332°
2026-04-14 08:24 -0.09935 -89.23275 33996 ft 469 kts 332°
2026-04-14 08:24 -0.04027 -89.26085 33996 ft 469 kts 332°
2026-04-14 08:25 0.01851 -89.28881 33996 ft 469 kts 332°
2026-04-14 08:25 0.07767 -89.31695 33996 ft 469 kts 332°
2026-04-14 08:26 0.13667 -89.34501 33996 ft 469 kts 332°
2026-04-14 08:26 0.19563 -89.37305 33996 ft 469 kts 332°
2026-04-14 08:27 0.25470 -89.40115 33996 ft 469 kts 332°
2026-04-14 08:27 0.31374 -89.42923 33996 ft 469 kts 332°
2026-04-14 08:28 0.37268 -89.45727 33996 ft 469 kts 332°
2026-04-14 08:28 0.43140 -89.48520 33996 ft 469 kts 332°
2026-04-14 08:29 0.49064 -89.51337 33996 ft 469 kts 332°
2026-04-14 08:29 0.54958 -89.54141 33996 ft 469 kts 332°
2026-04-14 08:30 0.60832 -89.56935 33996 ft 469 kts 332°
2026-04-14 08:30 0.66773 -89.59761 33996 ft 469 kts 332°
2026-04-14 08:31 0.72651 -89.62557 33996 ft 469 kts 332°
2026-04-14 08:31 0.81485 -89.66760 33996 ft 469 kts 332°
2026-04-14 08:32 0.87388 -89.69568 33996 ft 469 kts 332°
2026-04-14 08:32 0.93293 -89.72378 33996 ft 469 kts 332°
2026-04-14 08:33 0.99191 -89.75184 33996 ft 469 kts 332°
2026-04-14 08:33 1.05096 -89.77993 33996 ft 469 kts 332°
2026-04-14 08:34 1.10992 -89.80798 33996 ft 469 kts 332°
2026-04-14 08:34 1.16891 -89.83605 33996 ft 469 kts 332°
2026-04-14 08:35 1.22788 -89.86411 33996 ft 469 kts 332°
2026-04-14 08:35 1.28687 -89.89219 33996 ft 469 kts 332°
2026-04-14 08:36 1.34599 -89.92033 33996 ft 469 kts 332°
2026-04-14 08:36 1.40505 -89.94843 33996 ft 469 kts 332°
2026-04-14 08:37 1.46402 -89.97650 33996 ft 469 kts 332°
2026-04-14 08:37 1.52301 -90.00458 33996 ft 469 kts 332°
2026-04-14 08:38 1.58188 -90.03260 33996 ft 469 kts 332°
2026-04-14 08:38 1.64095 -90.06072 33996 ft 469 kts 332°
2026-04-14 08:39 1.69979 -90.08874 33996 ft 469 kts 332°
2026-04-14 08:39 1.75884 -90.11685 33996 ft 469 kts 332°
2026-04-14 08:40 1.81781 -90.14493 33996 ft 469 kts 332°
2026-04-14 08:40 1.87698 -90.17310 33996 ft 469 kts 332°
2026-04-14 08:41 1.93569 -90.20106 33996 ft 469 kts 332°
2026-04-14 08:41 1.99499 -90.22930 33996 ft 469 kts 332°
2026-04-14 08:42 2.05369 -90.25726 33996 ft 469 kts 332°
2026-04-14 08:42 2.11289 -90.28546 33996 ft 469 kts 332°
2026-04-14 08:43 2.17165 -90.31345 33996 ft 469 kts 332°
2026-04-14 08:43 2.23081 -90.34164 33996 ft 469 kts 332°
2026-04-14 08:44 2.28955 -90.36962 33996 ft 469 kts 332°
2026-04-14 08:44 2.34875 -90.39783 33996 ft 469 kts 332°
2026-04-14 08:45 2.40756 -90.42586 33996 ft 469 kts 332°
2026-04-14 08:45 2.46658 -90.45398 33996 ft 469 kts 332°
2026-04-14 08:46 2.52553 -90.48208 33996 ft 469 kts 332°
2026-04-14 08:46 2.58450 -90.51019 33996 ft 469 kts 332°
2026-04-14 08:47 2.64329 -90.53822 33996 ft 469 kts 332°
2026-04-14 08:47 2.70250 -90.56645 33996 ft 469 kts 332°
2026-04-14 08:48 2.76157 -90.59462 33996 ft 469 kts 332°
2026-04-14 08:48 2.82026 -90.62260 33996 ft 469 kts 332°
2026-04-14 08:49 2.87920 -90.65071 33996 ft 469 kts 332°
2026-04-14 08:49 2.93807 -90.67879 33996 ft 469 kts 332°
2026-04-14 08:50 2.99741 -90.70710 33996 ft 469 kts 332°
2026-04-14 08:50 3.05608 -90.73509 33996 ft 469 kts 332°
2026-04-14 08:51 3.11510 -90.76325 33996 ft 469 kts 332°
2026-04-14 08:51 3.16442 -90.78679 33996 ft 469 kts 332°
2026-04-14 08:52 3.22317 -90.81483 33996 ft 469 kts 332°
2026-04-14 08:52 3.28203 -90.84293 33996 ft 469 kts 332°
2026-04-14 08:53 3.34102 -90.87109 33996 ft 469 kts 332°
2026-04-14 08:53 3.40006 -90.89928 33996 ft 469 kts 332°
2026-04-14 08:54 3.45924 -90.92754 33996 ft 469 kts 332°
2026-04-14 08:54 3.51807 -90.95564 33996 ft 469 kts 332°
2026-04-14 08:55 3.57685 -90.98371 33996 ft 469 kts 332°
2026-04-14 08:55 3.63588 -91.01191 33996 ft 469 kts 332°
2026-04-14 08:56 3.69470 -91.04002 33996 ft 469 kts 332°
2026-04-14 08:56 3.75382 -91.06827 33996 ft 469 kts 332°
2026-04-14 08:57 3.81277 -91.09644 33996 ft 469 kts 332°
2026-04-14 08:57 3.87175 -91.12464 33996 ft 469 kts 332°
2026-04-14 08:58 3.93043 -91.15269 33996 ft 469 kts 332°
2026-04-14 08:58 3.98949 -91.18093 33996 ft 469 kts 332°
2026-04-14 08:59 4.04859 -91.20920 33996 ft 469 kts 332°
2026-04-14 08:59 4.10716 -91.23721 33996 ft 469 kts 332°
2026-04-14 09:00 4.16635 -91.26553 33996 ft 469 kts 332°
2026-04-14 09:00 4.22516 -91.29367 33996 ft 469 kts 332°
2026-04-14 09:01 4.28404 -91.32185 33996 ft 469 kts 332°
2026-04-14 09:01 4.34306 -91.35009 33996 ft 469 kts 332°
2026-04-14 09:02 4.40225 -91.37843 33996 ft 469 kts 332°
2026-04-14 09:02 4.46126 -91.40668 33996 ft 469 kts 332°
2026-04-14 09:03 4.52003 -91.43483 33996 ft 469 kts 332°
2026-04-14 09:03 4.57912 -91.46313 33996 ft 469 kts 332°
2026-04-14 09:04 4.63813 -91.49140 33996 ft 469 kts 332°
2026-04-14 09:04 4.69669 -91.51946 33996 ft 469 kts 332°
2026-04-14 09:05 4.75597 -91.54787 33996 ft 469 kts 332°
2026-04-14 09:05 4.81498 -91.57616 33996 ft 469 kts 332°
2026-04-14 09:06 4.87375 -91.60433 33996 ft 469 kts 332°
2026-04-14 09:06 4.93257 -91.63254 33996 ft 469 kts 332°
2026-04-14 09:07 4.99156 -91.66083 33996 ft 469 kts 332°
2026-04-14 09:07 5.05046 -91.68909 33996 ft 469 kts 332°
2026-04-14 09:08 5.10921 -91.71728 33996 ft 469 kts 332°
2026-04-14 09:08 5.16839 -91.74568 33996 ft 469 kts 332°
2026-04-14 09:09 5.22741 -91.77401 33996 ft 469 kts 332°
2026-04-14 09:09 5.28644 -91.80235 33996 ft 469 kts 332°
2026-04-14 09:10 5.34533 -91.83063 33996 ft 469 kts 332°
2026-04-14 09:10 5.40412 -91.85887 33996 ft 469 kts 332°
2026-04-14 09:11 5.46294 -91.88712 33996 ft 469 kts 332°
2026-04-14 09:11 5.52208 -91.91554 33996 ft 469 kts 332°
2026-04-14 09:12 5.58085 -91.94379 33996 ft 469 kts 332°
2026-04-14 09:12 5.64027 -91.97236 33996 ft 469 kts 332°
2026-04-14 09:13 5.69912 -92.00065 33996 ft 469 kts 332°
2026-04-14 09:13 5.75777 -92.02886 33996 ft 469 kts 332°
2026-04-14 09:14 5.81687 -92.05729 33996 ft 469 kts 332°
2026-04-14 09:14 5.87598 -92.08574 33996 ft 469 kts 332°
2026-04-14 09:15 5.93462 -92.11396 33996 ft 469 kts 332°
2026-04-14 09:15 5.99364 -92.14237 33996 ft 469 kts 332°
2026-04-14 09:16 6.05275 -92.17084 33996 ft 469 kts 332°
2026-04-14 09:16 6.11158 -92.19917 33996 ft 469 kts 332°
2026-04-14 09:17 6.17045 -92.22753 33996 ft 469 kts 332°
2026-04-14 09:17 6.22937 -92.25593 33996 ft 469 kts 332°
2026-04-14 09:18 6.28813 -92.28424 33996 ft 469 kts 332°
2026-04-14 09:18 6.34729 -92.31277 33996 ft 469 kts 332°
2026-04-14 09:19 6.40623 -92.34119 33996 ft 469 kts 332°
2026-04-14 09:19 6.46516 -92.36962 33996 ft 469 kts 332°
2026-04-14 09:20 6.52377 -92.39790 33996 ft 469 kts 332°
2026-04-14 09:20 6.58285 -92.42641 33996 ft 469 kts 332°
2026-04-14 09:21 6.64151 -92.45473 33996 ft 469 kts 332°
2026-04-14 09:21 6.70036 -92.48315 33996 ft 469 kts 332°
2026-04-14 09:22 6.75949 -92.51171 33996 ft 469 kts 332°
2026-04-14 09:22 6.80826 -92.53527 33996 ft 469 kts 332°
2026-04-14 09:23 6.86742 -92.56386 33996 ft 469 kts 332°
2026-04-14 09:23 6.92623 -92.59229 33996 ft 469 kts 332°
2026-04-14 09:24 6.98487 -92.62064 33996 ft 469 kts 332°
2026-04-14 09:24 7.04401 -92.64925 33996 ft 469 kts 332°
2026-04-14 09:25 7.10279 -92.67769 33996 ft 469 kts 332°
2026-04-14 09:25 7.16197 -92.70632 33996 ft 469 kts 332°
2026-04-14 09:26 7.22070 -92.73475 33996 ft 469 kts 332°
2026-04-14 09:26 7.27947 -92.76321 33996 ft 469 kts 332°
2026-04-14 09:27 7.33839 -92.79175 33996 ft 469 kts 332°
2026-04-14 09:27 7.39746 -92.82037 33996 ft 469 kts 332°
2026-04-14 09:28 7.45607 -92.84877 33996 ft 469 kts 332°
2026-04-14 09:28 7.51506 -92.87737 33996 ft 469 kts 332°
2026-04-14 09:29 7.57386 -92.90588 33996 ft 469 kts 332°
2026-04-14 09:29 7.63276 -92.93446 33996 ft 469 kts 332°
2026-04-14 09:30 7.69169 -92.96305 33996 ft 469 kts 332°
2026-04-14 09:30 7.75055 -92.99162 33996 ft 469 kts 332°
2026-04-14 09:31 7.80917 -93.02009 33996 ft 469 kts 332°
2026-04-14 09:31 7.86823 -93.04877 33996 ft 469 kts 332°
2026-04-14 09:32 7.92690 -93.07727 33996 ft 469 kts 332°
2026-04-14 09:33 8.01523 -93.12021 33996 ft 469 kts 332°
2026-04-14 09:33 8.07420 -93.14888 33996 ft 469 kts 332°
2026-04-14 09:34 8.13315 -93.17755 33996 ft 469 kts 332°
2026-04-14 09:34 8.19186 -93.20612 33996 ft 469 kts 332°
2026-04-14 09:35 8.25070 -93.23476 33996 ft 469 kts 332°
2026-04-14 09:35 8.30964 -93.26345 33996 ft 469 kts 332°
2026-04-14 09:36 8.36839 -93.29207 33996 ft 469 kts 332°
2026-04-14 09:36 8.42741 -93.32082 33996 ft 469 kts 332°
2026-04-14 09:37 8.48621 -93.34948 33996 ft 469 kts 332°
2026-04-14 09:37 8.54520 -93.37824 33996 ft 469 kts 332°
2026-04-14 09:38 8.60381 -93.40682 33996 ft 469 kts 332°
2026-04-14 09:38 8.66249 -93.43545 33996 ft 469 kts 332°
2026-04-14 09:39 8.72165 -93.46432 33996 ft 469 kts 332°
2026-04-14 09:39 8.78042 -93.49302 33996 ft 469 kts 331°
2026-04-14 09:40 8.83903 -93.52164 33996 ft 469 kts 331°
2026-04-14 09:40 8.89808 -93.55050 33996 ft 469 kts 331°
2026-04-14 09:41 8.95697 -93.57928 33996 ft 469 kts 331°
2026-04-14 09:41 9.01554 -93.60792 33996 ft 469 kts 331°
2026-04-14 09:42 9.07438 -93.63670 33996 ft 469 kts 331°
2026-04-14 09:42 9.13309 -93.66543 33996 ft 469 kts 331°
2026-04-14 09:43 9.19211 -93.69432 33996 ft 469 kts 331°
2026-04-14 09:43 9.25106 -93.72318 33996 ft 469 kts 331°
2026-04-14 09:44 9.30964 -93.75188 33996 ft 469 kts 331°
2026-04-14 09:44 9.36846 -93.78070 33996 ft 469 kts 331°
2026-04-14 09:45 9.42718 -93.80949 33996 ft 469 kts 331°
2026-04-14 09:45 9.48623 -93.83846 33996 ft 469 kts 331°
2026-04-14 09:46 9.54475 -93.86718 33996 ft 469 kts 331°
2026-04-14 09:46 9.60347 -93.89601 33996 ft 469 kts 331°
2026-04-14 09:47 9.66246 -93.92498 33996 ft 469 kts 331°
2026-04-14 09:47 9.72117 -93.95374 33996 ft 470 kts 332°
2026-04-14 09:48 9.78159 -93.97888 33996 ft 471 kts 336°
2026-04-14 09:48 9.84351 -94.00123 33996 ft 472 kts 338°
2026-04-14 09:49 9.90611 -94.02261 33996 ft 472 kts 339°
2026-04-14 09:49 9.96818 -94.04345 33996 ft 472 kts 339°
2026-04-14 09:50 10.03065 -94.06435 33996 ft 472 kts 339°
2026-04-14 09:50 10.09316 -94.08530 33996 ft 472 kts 339°
2026-04-14 09:51 10.15542 -94.10623 33996 ft 472 kts 339°
2026-04-14 09:51 10.21785 -94.12727 33996 ft 472 kts 339°
2026-04-14 09:52 10.28059 -94.14847 33996 ft 472 kts 339°
2026-04-14 09:52 10.34255 -94.16944 33996 ft 472 kts 339°
2026-04-14 09:53 10.40519 -94.19067 33996 ft 472 kts 339°
2026-04-14 09:53 10.46739 -94.21178 33996 ft 472 kts 339°
2026-04-14 09:54 10.52963 -94.23293 33996 ft 472 kts 339°
2026-04-14 09:54 10.59202 -94.25414 33996 ft 472 kts 339°
2026-04-14 09:55 10.65430 -94.27533 33996 ft 472 kts 339°
2026-04-14 09:55 10.70641 -94.29306 33996 ft 472 kts 339°
2026-04-14 09:56 10.76880 -94.31431 33996 ft 472 kts 339°
2026-04-14 09:56 10.83131 -94.33561 33996 ft 472 kts 339°
2026-04-14 09:57 10.89362 -94.35685 33996 ft 472 kts 339°
2026-04-14 09:57 10.95575 -94.37804 33996 ft 472 kts 339°
2026-04-14 09:58 11.01817 -94.39934 33996 ft 472 kts 339°
2026-04-14 09:58 11.08018 -94.42051 33996 ft 472 kts 339°
2026-04-14 09:59 11.14279 -94.44190 33996 ft 472 kts 339°
2026-04-14 09:59 11.20484 -94.46310 33996 ft 472 kts 339°
2026-04-14 10:00 11.26730 -94.48446 33996 ft 472 kts 339°
2026-04-14 10:00 11.32958 -94.50576 33996 ft 472 kts 339°
2026-04-14 10:01 11.39202 -94.52713 33996 ft 472 kts 339°
2026-04-14 10:01 11.45408 -94.54837 33996 ft 472 kts 339°
2026-04-14 10:02 11.51639 -94.56971 33996 ft 472 kts 339°
2026-04-14 10:02 11.57900 -94.59117 33996 ft 472 kts 339°
2026-04-14 10:03 11.64108 -94.61245 33996 ft 472 kts 339°
2026-04-14 10:03 11.70336 -94.63381 33996 ft 472 kts 339°
2026-04-14 10:04 11.76564 -94.65519 33996 ft 472 kts 339°
2026-04-14 10:04 11.82802 -94.67660 33996 ft 472 kts 339°
2026-04-14 10:05 11.89068 -94.69813 33996 ft 472 kts 339°
2026-04-14 10:05 11.95267 -94.71943 33996 ft 472 kts 339°
2026-04-14 10:06 12.01485 -94.74081 33996 ft 472 kts 339°
2026-04-14 10:06 12.07721 -94.76226 33996 ft 472 kts 339°
2026-04-14 10:07 12.13977 -94.78379 33996 ft 472 kts 338°
2026-04-14 10:07 12.20206 -94.80524 33996 ft 472 kts 338°
2026-04-14 10:08 12.26441 -94.82672 33996 ft 472 kts 338°
2026-04-14 10:08 12.32665 -94.84817 33996 ft 472 kts 338°
2026-04-14 10:09 12.38877 -94.86959 33996 ft 472 kts 338°
2026-04-14 10:09 12.45092 -94.89104 33996 ft 472 kts 338°
2026-04-14 10:10 12.51350 -94.91264 33996 ft 472 kts 338°
2026-04-14 10:10 12.57549 -94.93405 33996 ft 472 kts 338°
2026-04-14 10:11 12.63802 -94.95566 33996 ft 472 kts 338°
2026-04-14 10:11 12.70036 -94.97721 33996 ft 472 kts 338°
2026-04-14 10:12 12.76256 -94.99873 33996 ft 472 kts 338°
2026-04-14 10:12 12.82502 -95.02034 33996 ft 472 kts 338°
2026-04-14 10:13 12.88725 -95.04189 33996 ft 472 kts 338°
2026-04-14 10:13 12.94924 -95.06337 33996 ft 472 kts 338°
2026-04-14 10:14 13.01161 -95.08499 33996 ft 472 kts 338°
2026-04-14 10:14 13.07394 -95.10660 33996 ft 472 kts 338°
2026-04-14 10:15 13.13600 -95.12814 33996 ft 472 kts 338°
2026-04-14 10:15 13.19841 -95.14981 33996 ft 472 kts 338°
2026-04-14 10:16 13.26053 -95.17139 33996 ft 472 kts 338°
2026-04-14 10:16 13.32309 -95.19313 33996 ft 472 kts 338°
2026-04-14 10:17 13.38521 -95.21473 33996 ft 472 kts 338°
2026-04-14 10:17 13.44781 -95.23652 33996 ft 472 kts 338°
2026-04-14 10:18 13.54114 -95.26901 33996 ft 472 kts 338°
2026-04-14 10:18 13.60314 -95.29062 33996 ft 472 kts 338°
2026-04-14 10:19 13.66545 -95.31234 33996 ft 472 kts 338°
2026-04-14 10:19 13.72799 -95.33415 33996 ft 472 kts 338°
2026-04-14 10:20 13.79003 -95.35581 33996 ft 472 kts 338°
2026-04-14 10:20 13.85228 -95.37754 33996 ft 472 kts 338°
2026-04-14 10:21 13.91467 -95.39935 33996 ft 472 kts 338°
2026-04-14 10:21 13.97673 -95.42104 33996 ft 472 kts 338°
2026-04-14 10:22 14.03907 -95.44285 33996 ft 472 kts 338°
2026-04-14 10:22 14.10138 -95.46466 33996 ft 472 kts 338°
2026-04-14 10:23 14.16363 -95.48646 33996 ft 472 kts 338°
2026-04-14 10:23 14.22548 -95.50813 33996 ft 472 kts 338°
2026-04-14 10:24 14.28778 -95.52997 33996 ft 472 kts 338°
2026-04-14 10:24 14.35006 -95.55182 33996 ft 472 kts 338°
2026-04-14 10:25 14.40210 -95.57009 33996 ft 472 kts 338°
2026-04-14 10:25 14.46427 -95.59193 33996 ft 472 kts 338°
2026-04-14 10:26 14.52648 -95.61379 33996 ft 472 kts 338°
2026-04-14 10:26 14.58880 -95.63570 33996 ft 472 kts 338°
2026-04-14 10:27 14.65091 -95.65755 33996 ft 472 kts 338°
2026-04-14 10:27 14.71299 -95.67941 33996 ft 472 kts 338°
2026-04-14 10:28 14.77512 -95.70130 33996 ft 472 kts 338°
2026-04-14 10:28 14.83761 -95.72332 33996 ft 472 kts 338°
2026-04-14 10:29 14.89957 -95.74518 33996 ft 472 kts 338°
2026-04-14 10:29 14.96171 -95.76711 33996 ft 472 kts 338°
2026-04-14 10:30 15.02402 -95.78911 33996 ft 472 kts 338°
2026-04-14 10:30 15.08626 -95.81110 33996 ft 472 kts 338°
2026-04-14 10:31 15.14850 -95.83311 33996 ft 472 kts 338°
2026-04-14 10:31 15.21048 -95.85504 33996 ft 472 kts 338°
2026-04-14 10:32 15.27269 -95.87706 33996 ft 472 kts 338°
2026-04-14 10:32 15.33520 -95.89921 33996 ft 472 kts 338°
2026-04-14 10:33 15.39702 -95.92112 33996 ft 472 kts 338°
2026-04-14 10:33 15.45939 -95.94325 33996 ft 472 kts 338°
2026-04-14 10:34 15.55249 -95.97630 33996 ft 472 kts 338°
2026-04-14 10:35 15.61495 -95.99849 33996 ft 472 kts 338°
2026-04-14 10:35 15.67717 -96.02062 33996 ft 472 kts 338°
2026-04-14 10:36 15.73914 -96.04267 33996 ft 472 kts 338°
2026-04-14 10:36 15.80128 -96.06480 33996 ft 472 kts 338°
2026-04-14 10:37 15.86368 -96.08662 33996 ft 473 kts 340°
2026-04-14 10:37 15.92683 -96.10613 33996 ft 473 kts 341°
2026-04-14 10:38 15.99017 -96.12438 33996 ft 473 kts 342°
2026-04-14 10:38 16.05387 -96.14229 33996 ft 474 kts 342°
2026-04-14 10:39 16.11793 -96.16018 33996 ft 474 kts 342°
2026-04-14 10:39 16.18145 -96.17791 33996 ft 474 kts 342°
2026-04-14 10:40 16.24512 -96.19573 33996 ft 474 kts 342°
2026-04-14 10:40 16.30888 -96.21361 33996 ft 474 kts 342°
2026-04-14 10:41 16.37250 -96.23150 33996 ft 474 kts 342°
2026-04-14 10:41 16.43603 -96.24939 33996 ft 473 kts 342°
2026-04-14 10:42 16.49951 -96.26729 33996 ft 473 kts 342°
2026-04-14 10:42 16.56336 -96.28533 33996 ft 473 kts 342°
2026-04-14 10:43 16.62675 -96.30325 33996 ft 473 kts 342°
2026-04-14 10:43 16.69042 -96.32127 33996 ft 473 kts 342°
2026-04-14 10:44 16.75403 -96.33929 33996 ft 474 kts 342°
2026-04-14 10:44 16.81800 -96.35743 33996 ft 474 kts 342°
2026-04-14 10:45 16.88132 -96.37539 33996 ft 474 kts 342°
2026-04-14 10:45 16.94513 -96.39351 33996 ft 474 kts 342°
2026-04-14 10:46 17.00861 -96.41156 33996 ft 474 kts 342°
2026-04-14 10:46 17.07223 -96.42965 33996 ft 474 kts 342°
2026-04-14 10:47 17.13582 -96.44774 33996 ft 474 kts 342°
2026-04-14 10:47 17.19970 -96.46594 33996 ft 474 kts 342°
2026-04-14 10:48 17.26293 -96.48396 33996 ft 474 kts 342°
2026-04-14 10:48 17.32661 -96.50212 33996 ft 474 kts 342°
2026-04-14 10:49 17.39044 -96.52034 33996 ft 474 kts 342°
2026-04-14 10:49 17.45362 -96.53838 33996 ft 474 kts 342°
2026-04-14 10:50 17.51722 -96.55656 33996 ft 473 kts 342°
2026-04-14 10:50 17.58105 -96.57482 33996 ft 473 kts 342°
2026-04-14 10:51 17.64469 -96.59304 33996 ft 473 kts 342°
2026-04-14 10:51 17.70816 -96.61122 33996 ft 473 kts 342°
2026-04-14 10:52 17.77197 -96.62951 33996 ft 473 kts 342°
2026-04-14 10:52 17.83554 -96.64775 33996 ft 473 kts 342°
2026-04-14 10:53 17.89923 -96.66603 33996 ft 473 kts 342°
2026-04-14 10:53 17.96274 -96.68428 33996 ft 473 kts 342°
2026-04-14 10:54 18.02618 -96.70252 33996 ft 473 kts 342°
2026-04-14 10:54 18.08965 -96.72079 33996 ft 473 kts 342°
2026-04-14 10:55 18.15339 -96.73914 33996 ft 473 kts 342°
2026-04-14 10:55 18.21681 -96.75742 33996 ft 473 kts 342°
2026-04-14 10:56 18.28056 -96.77580 33996 ft 473 kts 342°
2026-04-14 10:56 18.33347 -96.79107 33996 ft 473 kts 342°
2026-04-14 10:57 18.39700 -96.80942 33996 ft 473 kts 342°
2026-04-14 10:57 18.46071 -96.82783 33996 ft 473 kts 342°
2026-04-14 10:58 18.52428 -96.84622 33996 ft 473 kts 342°
2026-04-14 10:58 18.58757 -96.86454 33996 ft 473 kts 342°
2026-04-14 10:59 18.65114 -96.88295 33996 ft 473 kts 342°
2026-04-14 10:59 18.71474 -96.90139 33996 ft 473 kts 342°
2026-04-14 11:00 18.77867 -96.91994 33996 ft 473 kts 342°
2026-04-14 11:00 18.84186 -96.93829 33996 ft 473 kts 342°
2026-04-14 11:01 18.90548 -96.95678 33996 ft 473 kts 342°
2026-04-14 11:01 18.96900 -96.97525 33996 ft 473 kts 342°
2026-04-14 11:02 19.03255 -96.99375 33996 ft 473 kts 342°
2026-04-14 11:02 19.09643 -97.01236 33996 ft 473 kts 341°
2026-04-14 11:03 19.15977 -97.03082 33996 ft 473 kts 341°
2026-04-14 11:03 19.22340 -97.04939 33996 ft 473 kts 341°
2026-04-14 11:04 19.28695 -97.06794 33996 ft 473 kts 341°
2026-04-14 11:04 19.35072 -97.08658 33996 ft 473 kts 341°
2026-04-14 11:05 19.41413 -97.10512 33996 ft 473 kts 341°
2026-04-14 11:05 19.47743 -97.12365 33996 ft 473 kts 341°
2026-04-14 11:06 19.54111 -97.14231 33996 ft 473 kts 341°
2026-04-14 11:06 19.60441 -97.16087 33996 ft 473 kts 341°
2026-04-14 11:07 19.66835 -97.17963 33996 ft 473 kts 341°
2026-04-14 11:07 19.73159 -97.19820 33996 ft 473 kts 341°
2026-04-14 11:08 19.79517 -97.21689 33996 ft 473 kts 341°
2026-04-14 11:08 19.85858 -97.23554 33996 ft 473 kts 341°
2026-04-14 11:09 19.92225 -97.25428 33996 ft 473 kts 341°
2026-04-14 11:09 19.98565 -97.27296 33996 ft 473 kts 341°
2026-04-14 11:10 20.08107 -97.30111 33996 ft 473 kts 341°
2026-04-14 11:10 20.14460 -97.31987 33996 ft 473 kts 341°
2026-04-14 11:11 20.20808 -97.33864 33996 ft 473 kts 341°
2026-04-14 11:11 20.27161 -97.35743 33996 ft 473 kts 341°
2026-04-14 11:12 20.33504 -97.37621 33996 ft 473 kts 341°
2026-04-14 11:12 20.39864 -97.39506 33996 ft 473 kts 341°
2026-04-14 11:13 20.46219 -97.41391 33996 ft 473 kts 341°
2026-04-14 11:13 20.52560 -97.43275 33996 ft 473 kts 341°
2026-04-14 11:14 20.58905 -97.45240 33996 ft 472 kts 339°
2026-04-14 11:14 20.65108 -97.47541 33996 ft 472 kts 337°
2026-04-14 11:15 20.71248 -97.50010 33996 ft 471 kts 336°
2026-04-14 11:15 20.77372 -97.52541 33996 ft 471 kts 336°
2026-04-14 11:16 20.83473 -97.55085 33996 ft 471 kts 336°
2026-04-14 11:16 20.89563 -97.57629 33996 ft 471 kts 336°
2026-04-14 11:17 20.95691 -97.60188 33996 ft 471 kts 336°
2026-04-14 11:17 21.01786 -97.62731 33996 ft 471 kts 336°
2026-04-14 11:18 21.07909 -97.65284 33996 ft 471 kts 336°
2026-04-14 11:18 21.14042 -97.67842 33996 ft 471 kts 336°
2026-04-14 11:19 21.20136 -97.70383 33996 ft 471 kts 336°
2026-04-14 11:19 21.26260 -97.72937 33996 ft 471 kts 336°
2026-04-14 11:20 21.32384 -97.75493 33996 ft 471 kts 336°
2026-04-14 11:20 21.38488 -97.78042 33996 ft 471 kts 336°
2026-04-14 11:21 21.44586 -97.80589 33996 ft 471 kts 336°
2026-04-14 11:21 21.50725 -97.83157 33996 ft 471 kts 336°
2026-04-14 11:22 21.56840 -97.85716 33996 ft 471 kts 336°
2026-04-14 11:22 21.62930 -97.88267 33996 ft 471 kts 336°
2026-04-14 11:23 21.69055 -97.90834 33996 ft 471 kts 336°
2026-04-14 11:23 21.75145 -97.93390 33996 ft 471 kts 336°
2026-04-14 11:24 21.81276 -97.95965 33996 ft 471 kts 336°
2026-04-14 11:24 21.87363 -97.98523 33996 ft 471 kts 336°
2026-04-14 11:25 21.92964 -98.00880 33996 ft 471 kts 336°
2026-04-14 11:26 21.94100 -98.01358 33978 ft 472 kts 336°
2026-04-14 11:26 21.96042 -98.02176 33876 ft 473 kts 336°
2026-04-14 11:26 22.00126 -98.03896 33568 ft 471 kts 336°
2026-04-14 11:27 22.02157 -98.04752 33403 ft 470 kts 336°
2026-04-14 11:27 22.05197 -98.06033 33154 ft 469 kts 336°
2026-04-14 11:27 22.08253 -98.07321 32903 ft 469 kts 336°
2026-04-14 11:27 22.11251 -98.08586 32657 ft 468 kts 336°
2026-04-14 11:28 22.14292 -98.09870 32407 ft 468 kts 336°
2026-04-14 11:28 22.17346 -98.11159 32156 ft 468 kts 336°
2026-04-14 11:28 22.20363 -98.12434 31909 ft 469 kts 336°
2026-04-14 11:28 22.23403 -98.13720 31659 ft 469 kts 336°
2026-04-14 11:29 22.26469 -98.15017 31408 ft 469 kts 336°
2026-04-14 11:29 22.29521 -98.16309 31158 ft 470 kts 336°
2026-04-14 11:29 22.32561 -98.17596 30910 ft 470 kts 336°
2026-04-14 11:29 22.35612 -98.18889 30660 ft 471 kts 336°
2026-04-14 11:30 22.38660 -98.20180 30412 ft 471 kts 336°
2026-04-14 11:30 22.41697 -98.21468 30164 ft 471 kts 336°
2026-04-14 11:30 22.44776 -98.22774 29913 ft 472 kts 336°
2026-04-14 11:30 22.47843 -98.24076 29664 ft 472 kts 336°
2026-04-14 11:31 22.50906 -98.25377 29415 ft 473 kts 336°
2026-04-14 11:31 22.53969 -98.26678 29166 ft 473 kts 336°
2026-04-14 11:31 22.57032 -98.27979 28918 ft 474 kts 336°
2026-04-14 11:31 22.60114 -98.29290 28668 ft 475 kts 336°
2026-04-14 11:32 22.63164 -98.30587 28421 ft 475 kts 336°
2026-04-14 11:32 22.66254 -98.31902 28171 ft 476 kts 336°
2026-04-14 11:32 22.69329 -98.33211 27923 ft 476 kts 336°
2026-04-14 11:32 22.72442 -98.34538 27672 ft 477 kts 336°
2026-04-14 11:33 22.75539 -98.35858 27422 ft 477 kts 336°
2026-04-14 11:33 22.78631 -98.37176 27173 ft 478 kts 336°
2026-04-14 11:33 22.81698 -98.38484 26927 ft 478 kts 336°
2026-04-14 11:34 22.87874 -98.41121 26431 ft 479 kts 336°
2026-04-14 11:34 22.91001 -98.42457 26181 ft 480 kts 336°
2026-04-14 11:34 22.92309 -98.43016 26077 ft 480 kts 336°
2026-04-14 11:34 22.92454 -98.43078 26066 ft 480 kts 336°
2026-04-14 11:35 22.95563 -98.44407 25820 ft 480 kts 336°
2026-04-14 11:35 22.98671 -98.45736 25572 ft 479 kts 336°
2026-04-14 11:35 23.01757 -98.47056 25320 ft 475 kts 336°
2026-04-14 11:35 23.04826 -98.48367 25061 ft 467 kts 335°
2026-04-14 11:36 23.07844 -98.49656 24804 ft 461 kts 335°
2026-04-14 11:36 23.10777 -98.50910 24553 ft 456 kts 335°
2026-04-14 11:36 23.13742 -98.52179 24298 ft 452 kts 335°
2026-04-14 11:36 23.16660 -98.53430 24047 ft 449 kts 335°
2026-04-14 11:37 23.19545 -98.54668 23796 ft 447 kts 335°
2026-04-14 11:37 23.22457 -98.55918 23543 ft 445 kts 335°
2026-04-14 11:37 23.25305 -98.57142 23294 ft 443 kts 335°
2026-04-14 11:37 23.28181 -98.58378 23042 ft 441 kts 335°
2026-04-14 11:38 23.31015 -98.59598 22792 ft 439 kts 335°
2026-04-14 11:38 23.33864 -98.60824 22540 ft 437 kts 335°
2026-04-14 11:38 23.36676 -98.62035 22291 ft 436 kts 335°
2026-04-14 11:38 23.39505 -98.63254 22039 ft 434 kts 335°
2026-04-14 11:39 23.42299 -98.64459 21789 ft 432 kts 335°
2026-04-14 11:39 23.45081 -98.65658 21539 ft 431 kts 335°
2026-04-14 11:39 23.47874 -98.66863 21287 ft 429 kts 335°
2026-04-14 11:39 23.50664 -98.68067 21035 ft 427 kts 335°
2026-04-14 11:40 23.53430 -98.69261 20783 ft 426 kts 335°
2026-04-14 11:40 23.56161 -98.70441 20534 ft 424 kts 335°
2026-04-14 11:40 23.58886 -98.71618 20285 ft 423 kts 335°
2026-04-14 11:40 23.61621 -98.72801 20034 ft 421 kts 335°
2026-04-14 11:41 23.64369 -98.73989 19780 ft 419 kts 335°
2026-04-14 11:41 23.67059 -98.75153 19531 ft 418 kts 335°
2026-04-14 11:41 23.69773 -98.76328 19279 ft 416 kts 335°
2026-04-14 11:41 23.72428 -98.77477 19031 ft 415 kts 335°
2026-04-14 11:42 23.75101 -98.78636 18781 ft 413 kts 335°
2026-04-14 11:42 23.77809 -98.79809 18526 ft 411 kts 335°
2026-04-14 11:42 23.80432 -98.80947 18279 ft 410 kts 335°
2026-04-14 11:42 23.83114 -98.82110 18025 ft 408 kts 335°
2026-04-14 11:43 23.85734 -98.83247 17778 ft 408 kts 335°
2026-04-14 11:43 23.87189 -98.83879 17684 ft 409 kts 335°
2026-04-14 11:43 23.87987 -98.84226 17644 ft 410 kts 335°
2026-04-14 11:44 23.90688 -98.85401 17518 ft 414 kts 335°
2026-04-14 11:44 23.93338 -98.86555 17398 ft 417 kts 335°
2026-04-14 11:44 23.96047 -98.87735 17274 ft 418 kts 335°
2026-04-14 11:44 23.98755 -98.88913 17149 ft 418 kts 335°
2026-04-14 11:45 24.01478 -98.90098 17024 ft 418 kts 335°
2026-04-14 11:45 24.04176 -98.91273 16899 ft 418 kts 335°
2026-04-14 11:45 24.04847 -98.91565 16871 ft 418 kts 335°
2026-04-14 11:45 24.05276 -98.91751 16857 ft 417 kts 335°
2026-04-14 11:46 24.06373 -98.92229 16830 ft 417 kts 335°
2026-04-14 11:46 24.09049 -98.93394 16777 ft 416 kts 335°
2026-04-14 11:46 24.11756 -98.94573 16727 ft 416 kts 335°
2026-04-14 11:46 24.14439 -98.95742 16677 ft 416 kts 335°
2026-04-14 11:47 24.17149 -98.96924 16626 ft 416 kts 335°
2026-04-14 11:47 24.19831 -98.98094 16576 ft 415 kts 335°
2026-04-14 11:47 24.22504 -98.99261 16526 ft 415 kts 335°
2026-04-14 11:47 24.25209 -99.00442 16476 ft 415 kts 335°
2026-04-14 11:48 24.27860 -99.01600 16426 ft 415 kts 335°
2026-04-14 11:48 24.30539 -99.02771 16376 ft 414 kts 335°
2026-04-14 11:48 24.33224 -99.03945 16326 ft 414 kts 335°
2026-04-14 11:48 24.35891 -99.05112 16276 ft 414 kts 335°
2026-04-14 11:49 24.38565 -99.06283 16226 ft 413 kts 335°
2026-04-14 11:49 24.41242 -99.07456 16175 ft 413 kts 335°
2026-04-14 11:49 24.43916 -99.08627 16125 ft 413 kts 335°
2026-04-14 11:49 24.46593 -99.09801 16075 ft 412 kts 335°
2026-04-14 11:50 24.49248 -99.10965 16025 ft 412 kts 335°
2026-04-14 11:50 24.51915 -99.12136 15975 ft 412 kts 335°
2026-04-14 11:50 24.54576 -99.13303 15924 ft 412 kts 335°
2026-04-14 11:51 24.57323 -99.14510 15873 ft 411 kts 335°
2026-04-14 11:51 24.60001 -99.15687 15822 ft 411 kts 335°
2026-04-14 11:51 24.62656 -99.16854 15772 ft 411 kts 335°
2026-04-14 11:51 24.65283 -99.18009 15722 ft 410 kts 335°
2026-04-14 11:52 24.67964 -99.19189 15672 ft 410 kts 335°
2026-04-14 11:52 24.70592 -99.20346 15622 ft 410 kts 335°
2026-04-14 11:52 24.73259 -99.21521 15571 ft 409 kts 335°
2026-04-14 11:52 24.75888 -99.22679 15522 ft 409 kts 335°
2026-04-14 11:53 24.78551 -99.23853 15471 ft 409 kts 335°
2026-04-14 11:53 24.80184 -99.24573 15440 ft 409 kts 335°
2026-04-14 11:53 24.82841 -99.25745 15390 ft 408 kts 335°
2026-04-14 11:53 24.85466 -99.26904 15340 ft 408 kts 335°
2026-04-14 11:54 24.88125 -99.28079 15289 ft 408 kts 335°
2026-04-14 11:54 24.90733 -99.29231 15239 ft 408 kts 335°
2026-04-14 11:54 24.93397 -99.30409 15189 ft 407 kts 335°
2026-04-14 11:54 24.96016 -99.31567 15139 ft 407 kts 335°
2026-04-14 11:55 24.98632 -99.32724 15089 ft 407 kts 335°
2026-04-14 11:55 25.01268 -99.33891 15038 ft 406 kts 335°
2026-04-14 11:55 25.03887 -99.35051 14988 ft 406 kts 335°
2026-04-14 11:55 25.06532 -99.36224 14938 ft 406 kts 335°
2026-04-14 11:56 25.09151 -99.37385 14888 ft 405 kts 335°
2026-04-14 11:56 25.11750 -99.38538 14838 ft 405 kts 335°
2026-04-14 11:56 25.14375 -99.39703 14788 ft 405 kts 335°
2026-04-14 11:56 25.16126 -99.40481 14754 ft 405 kts 335°
2026-04-14 11:57 25.17896 -99.41280 14720 ft 404 kts 334°
2026-04-14 11:57 25.19002 -99.41794 14698 ft 404 kts 334°
2026-04-14 11:57 25.21578 -99.43030 14648 ft 403 kts 333°
2026-04-14 11:58 25.24135 -99.44296 14598 ft 403 kts 333°
2026-04-14 11:58 25.26696 -99.45590 14548 ft 402 kts 332°
2026-04-14 11:58 25.29226 -99.46886 14354 ft 402 kts 332°
2026-04-14 11:58 25.29405 -99.46978 14337 ft 401 kts 332°
2026-04-14 11:59 25.29978 -99.47273 14279 ft 400 kts 332°
2026-04-14 11:59 25.30248 -99.47413 14252 ft 399 kts 332°
2026-04-14 12:00 25.32535 -99.48594 14018 ft 393 kts 332°
2026-04-14 12:00 25.34998 -99.49872 13735 ft 385 kts 332°
2026-04-14 12:00 25.37379 -99.51107 13282 ft 370 kts 332°
2026-04-14 12:00 25.39654 -99.52289 12940 ft 358 kts 332°
2026-04-14 12:01 25.39992 -99.52465 12895 ft 357 kts 332°
2026-04-14 12:01 25.40433 -99.52695 12835 ft 357 kts 332°
2026-04-14 12:01 25.42687 -99.53871 12534 ft 356 kts 332°
2026-04-14 12:01 25.44907 -99.55082 12229 ft 354 kts 327°
2026-04-14 12:02 25.46875 -99.56711 11823 ft 352 kts 315°
2026-04-14 12:02 25.48561 -99.58653 11379 ft 349 kts 308°
2026-04-14 12:02 25.50071 -99.60764 10928 ft 346 kts 304°
2026-04-14 12:02 25.51442 -99.62918 10481 ft 343 kts 302°
2026-04-14 12:03 25.52757 -99.65133 10030 ft 341 kts 301°
2026-04-14 12:03 25.54017 -99.67339 9652 ft 337 kts 300°
2026-04-14 12:03 25.55243 -99.69532 9278 ft 335 kts 300°
2026-04-14 12:03 25.55445 -99.69896 9216 ft 335 kts 300°
2026-04-14 12:04 25.56095 -99.71071 9015 ft 334 kts 300°
2026-04-14 12:04 25.57305 -99.73267 8639 ft 332 kts 300°
2026-04-14 12:04 25.58503 -99.75447 8264 ft 331 kts 300°
2026-04-14 12:04 25.59215 -99.76742 8040 ft 330 kts 300°
2026-04-14 12:05 25.60386 -99.78870 7654 ft 314 kts 300°
2026-04-14 12:05 25.61493 -99.80878 7269 ft 299 kts 299°
2026-04-14 12:05 25.62558 -99.82808 6882 ft 286 kts 299°
2026-04-14 12:05 25.63576 -99.84655 6483 ft 274 kts 299°
2026-04-14 12:06 25.64561 -99.86449 5971 ft 269 kts 301°
2026-04-14 12:06 25.65519 -99.88200 5534 ft 261 kts 302°
2026-04-14 12:06 25.66428 -99.89857 5343 ft 246 kts 302°
2026-04-14 12:06 25.67288 -99.91419 5155 ft 232 kts 302°
2026-04-14 12:07 25.68127 -99.92942 4907 ft 228 kts 302°
2026-04-14 12:07 25.68945 -99.94402 4482 ft 223 kts 302°
2026-04-14 12:07 25.69226 -99.94889 4349 ft 227 kts 303°
2026-04-14 12:07 25.69898 -99.96037 4123 ft 232 kts 302°
2026-04-14 12:08 25.70726 -99.97508 3973 ft 216 kts 302°
2026-04-14 12:08 25.71519 -99.98946 3517 ft 218 kts 301°
2026-04-14 12:08 25.72297 -100.00390 3143 ft 217 kts 300°
2026-04-14 12:08 25.73059 -100.01826 2839 ft 214 kts 300°
2026-04-14 12:09 25.73815 -100.03242 2504 ft 214 kts 301°
2026-04-14 12:09 25.74584 -100.04640 2242 ft 211 kts 301°
2026-04-14 12:09 25.75337 -100.06024 1973 ft 209 kts 301°
2026-04-14 12:09 25.76085 -100.07400 1681 ft 204 kts 301°
2026-04-14 12:10 25.76807 -100.08717 1403 ft 196 kts 301°
2026-04-14 12:10 25.77483 -100.09957 1297 ft 167 kts 301°
2026-04-14 12:10 25.77846 -100.10625 1297 ft 121 kts 301°
2026-04-14 12:10 25.75243 -100.05850 2006 ft 209 kts 301°
2026-04-14 12:11 25.75986 -100.07218 1721 ft 205 kts 301°
2026-04-14 12:11 25.76709 -100.08537 1441 ft 197 kts 301°
2026-04-14 12:11 25.77399 -100.09803 1297 ft 177 kts 301°
2026-04-14 12:11 25.77844 -100.10622 1297 ft 122 kts 301°
2026-04-14 12:12 25.77935 -100.10789 1297 ft 107 kts 301°
2026-04-14 12:12 25.78192 -100.11262 1297 ft 42 kts 301°
2026-04-14 12:12 25.78311 -100.11481 1297 ft 30 kts 301°
2026-04-14 12:12 25.78364 -100.11579 1297 ft 21 kts 301°
2026-04-14 12:13 25.78421 -100.11689 1297 ft 12 kts 291°
2026-04-14 12:13 25.78431 -100.11749 1296 ft 4 kts 276°
2026-04-14 12:13 25.78431 -100.11765 1296 ft 1 kts 266°
2026-04-14 12:13 25.78430 -100.11769 1296 ft 3 kts 263°
2026-04-14 12:14 25.78415 -100.11804 1296 ft 10 kts 224°
2026-04-14 12:14 25.78322 -100.11862 1296 ft 17 kts 211°
2026-04-14 12:14 25.78254 -100.11908 1296 ft 8 kts 211°
2026-04-14 12:14 25.78215 -100.11905 1296 ft 7 kts 146°
2026-04-14 12:15 25.78190 -100.11866 1296 ft 11 kts 122°
2026-04-14 12:15 25.78138 -100.11768 1296 ft 17 kts 108°
2026-04-14 12:15 25.78171 -100.11689 1296 ft 13 kts 53°
2026-04-14 12:15 25.78159 -100.11595 1296 ft 15 kts 122°
2026-04-14 12:16 25.78091 -100.11475 1296 ft 22 kts 122°
2026-04-14 12:16 25.78000 -100.11308 1296 ft 28 kts 121°
2026-04-14 12:16 25.77929 -100.11177 1296 ft 15 kts 121°
2026-04-14 12:16 25.77878 -100.11160 1296 ft 7 kts 200°
2026-04-14 12:17 25.77827 -100.11191 1296 ft 10 kts 212°
2026-04-14 12:17 25.77783 -100.11171 1296 ft 7 kts 120°
2026-04-14 12:17 25.77747 -100.11109 1296 ft 11 kts 123°
2026-04-14 12:17 25.77738 -100.11093 1296 ft 12 kts 123°
2026-04-14 12:18 25.77695 -100.11039 1296 ft 12 kts 149°
2026-04-14 12:18 25.77624 -100.11031 1296 ft 10 kts 204°
2026-04-14 12:18 25.77603 -100.11085 1296 ft 5 kts 257°
2026-04-14 12:19 25.77598 -100.11109 1296 ft 3 kts 254°
2026-04-14 12:19 25.77597 -100.11109 1296 ft 0 kts 254°